                ,  0.301,  0.397,  0.494,  0.590,  0.687,  0.784,  0.880,  0.977,  1.073,  1.170,  1.267,  1.363,  1.460,  1.556,  1.653,  1.749,  1.846,  1.943,  2.039,  2.136,  2.232,  2.329,  2.426,  2.522,  2.619,  2.715,  2.812,  2.909,  3.005,  3.102,  3.198,  3.295,  3.392,  3.488,  3.585,  3.681,  3.778,  3.875,  3.971,  4.068,  4.164,  4.261,  4.357,  4.454,  4.551,  4.647,  4.744,  4.840,  4.937,  5.034,  5.130,  5.227,  5.323,  5.420,  5.517,  5.613,  5.710,  5.806,  5.903,  6.000,  6.096,  6.193,  6.289,  6.386,  6.483,  6.579,  6.676,  6.772,  6.869,  6.965,  7.062,  7.159,  7.255,  7.352,  7.448,  7.545,  7.642,  7.738,  7.835,  7.931
2014/01/03 00:00,  999.0,  999.0,    0.1,    0.1,    0.6,    0.4,  999.0,    0.5,    1.3,    0.8,   -0.4,   -0.6,    0.4,    0.3,    0.2,    0.6,    2.9,    1.5,    2.3,    1.4,    0.5,    1.2,    0.5,    0.6,    0.2,   -0.1,   -0.4,   -0.2,   -0.3,    0.4,    0.0,    0.4,    0.2,    0.5,    0.2,  999.0,   -0.2,  999.0,   -0.1,    0.0,    0.1,    0.1,   -0.3,    0.3,   -0.0,    0.0,   -0.2,    0.0,    0.1,    0.2,    0.0,   -0.1,   -0.0,    0.0,   -0.0,    0.0,   -0.1,   -0.1,    0.0,   -0.1,    0.3,    0.2,    0.2,    0.0,  999.0,   -0.1,   -0.5,  999.0,    0.0,  999.0,  999.0,  999.0,  999.0,  999.0,  999.0,  999.0,  999.0,  999.0,  999.0,  999.0
2014/01/03 00:10,  999.0,    0.8,    0.5,    0.7,    0.3,   -0.4,    0.4,    0.5,    0.8,    0.3,    0.1,   -0.7,   -0.9,    0.1,    0.2,    0.6,    0.5,    0.6,    0.8,    0.5,    0.2,   -0.1,   -0.8,   -0.5,   -0.1,   -0.1,    0.0,    0.0,    0.1,    0.1,    0.2,   -0.2,    0.0,    0.2,    0.1,   -0.2,   -0.0,   -0.0,   -0.0,   -0.0,    0.0,   -0.1,    0.2,    0.2,   -0.1,   -0.0,    0.1,    0.1,   -0.0,    0.1,   -0.0,   -0.2,    0.1,   -0.1,   -0.1,    0.2,   -0.3,   -0.1,   -0.0,   -0.2,   -0.1,   -0.1,    0.2,   -0.1,    0.1,  999.0,    0.1,   -0.1,    0.3,   -0.0,  999.0,  999.0,  999.0,  999.0,  999.0,  999.0,  999.0,  999.0,  999.0,  999.0
2014/01/03 00:20,  999.0,    0.2,    0.7,    0.9,    0.6,    0.2,    0.2,   -0.0,    0.2,    0.3,    0.4,    0.2,   -0.4,   -0.4,   -0.1,    0.2,    0.2,    0.3,    0.2,    0.1,   -0.1,   -0.1,   -0.4,   -0.0,   -0.0,    0.0,    0.1,    0.1,   -0.1,    0.2,    0.1,   -0.2,   -0.1,   -0.1,   -0.0,   -0.2,   -0.0,   -0.0,   -0.0,   -0.2,    0.0,   -0.0,    0.0,    0.1,   -0.1,   -0.0,   -0.2,   -0.1,   -0.2,    0.0,    0.0,    0.2,    0.1,    0.1,   -0.0,    0.1,   -0.1,    0.0,   -0.0,    0.1,    0.0,    0.1,   -0.1,   -0.1,   -0.1,   -0.2,    0.1,    0.1,   -0.0,    0.1,  999.0,  999.0,  999.0,  999.0,  999.0,  999.0,  999.0,  999.0,  999.0,  999.0
2014/01/03 00:30,  999.0,    0.0,    0.2,    0.1,    0.3,    0.1,    0.1,    0.2,    0.1,   -0.0,    0.1,   -0.3,   -0.4,   -0.3,   -0.1,   -0.1,   -0.0,    0.0,   -0.0,   -0.0,   -0.0,   -0.4,   -0.6,   -0.2,   -0.1,   -0.0,   -0.0,   -0.1,    0.1,   -0.3,   -0.2,    0.1,   -0.1,    0.1,   -0.1,    0.0,    0.2,    0.1,   -0.0,   -0.1,   -0.2,   -0.0,    0.2,    0.1,    0.1,    0.0,   -0.1,    0.1,    0.1,    0.1,    0.2,   -0.1,   -0.4,   -0.0,   -0.1,   -0.0,   -0.1,    0.0,    0.1,    0.1,    0.1,   -0.2,   -0.1,   -0.1,   -0.0,   -0.0,    0.1,    0.2,   -0.3,   -0.4,    0.0,  999.0,  999.0,  999.0,    0.0,  999.0,  999.0,  999.0,  999.0,  999.0
2014/01/03 00:40,  999.0,  999.0,   -0.1,   -0.0,    0.0,    0.1,    0.0,   -0.1,   -0.0,    0.1,    0.0,   -0.1,   -0.1,    0.2,    0.3,    0.1,    0.3,   -0.0,    0.0,    0.0,  999.0,    0.0,    0.3,   -0.2,   -0.1,   -0.0,    0.1,   -0.1,    0.1,   -0.1,    0.1,    0.1,    0.1,   -0.0,    0.1,    0.1,    0.2,   -0.1,   -0.1,    0.0,   -0.1,   -0.2,    0.1,    0.1,   -0.0,    0.0,    0.1,    0.0,    0.1,    0.0,   -0.0,    0.1,    0.1,    0.0,   -0.1,   -0.0,    0.1,   -0.0,    0.1,   -0.1,   -0.0,    0.0,    0.3,   -0.1,    0.0,   -0.0,  999.0,    0.1,   -0.1,   -0.1,  999.0,  999.0,  999.0,  999.0,  999.0,  999.0,  999.0,  999.0,  999.0,  999.0
2014/01/03 00:50,  999.0,  999.0,    0.5,    0.2,    0.3,    0.3,    0.3,    0.1,    0.0,   -0.0,    0.1,    0.1,    0.1,    0.0,   -0.0,    0.2,    0.3,    0.0,   -0.1,   -0.1,   -0.3,   -0.2,    0.1,  999.0,  999.0,   -0.1,    0.1,    0.1,   -0.0,   -0.0,   -0.1,    0.1,   -0.1,    0.0,   -0.2,   -0.0,    0.0,    0.0,    0.2,    0.2,   -0.1,   -0.1,    0.0,   -0.1,    0.1,    0.1,    0.1,   -0.1,    0.0,    0.1,   -0.1,   -0.0,    0.1,    0.1,    0.0,   -0.1,    0.1,    0.1,   -0.1,    0.1,    0.2,    0.0,    0.1,    0.1,   -0.1,   -0.0,   -0.2,    0.1,    0.1,  999.0,   -0.1,   -0.1,  999.0,  999.0,  999.0,  999.0,  999.0,  999.0,  999.0,  999.0
2014/01/03 01:00,  999.0,    0.1,    0.2,    0.3,    0.2,    0.5,    0.4,    0.2,    0.1,    0.1,    0.2,   -0.0,    0.1,    0.0,    0.1,    0.1,    0.2,    0.0,    0.2,    0.2,   -0.2,   -0.2,   -0.3,   -0.1,   -0.0,    0.0,   -0.1,    0.1,   -0.0,    0.0,   -0.2,   -0.0,    0.0,    0.1,    0.1,   -0.0,    0.0,    0.2,   -0.2,   -0.3,   -0.4,   -0.1,    0.2,   -0.1,    0.0,   -0.1,   -0.2,    0.1,    0.0,    0.0,    0.2,   -0.0,   -0.1,    0.1,    0.2,   -0.0,    0.1,    0.3,    0.1,   -0.1,   -0.0,   -0.1,    0.1,   -0.1,    0.1,   -0.2,    0.2,    0.0,  999.0,   -0.0,    0.2,  999.0,  999.0,  999.0,  999.0,  999.0,  999.0,  999.0,  999.0,  999.0
2014/01/03 01:10,  999.0,   -0.0,   -0.3,    0.3,    0.2,    0.2,    0.8,    0.5,    0.3,    0.5,    0.2,   -0.1,    0.1,    0.2,    0.2,    0.1,    0.1,    0.1,    0.1,    0.1,   -0.2,   -0.2,   -0.2,    0.0,    0.0,    0.0,   -0.1,    0.0,   -0.1,    0.1,    0.2,    0.0,   -0.0,    0.1,    0.2,   -0.1,    0.0,   -0.1,   -0.0,   -0.1,   -0.2,    0.1,   -0.0,   -0.1,   -0.1,    0.0,   -0.0,   -0.1,    0.0,   -0.2,    0.1,   -0.2,    0.0,   -0.0,   -0.0,   -0.2,   -0.1,   -0.1,    0.1,   -0.1,    0.2,    0.1,   -0.0,    0.1,   -0.1,    0.1,    0.2,    0.1,    0.0,   -0.1,   -0.0,  999.0,  999.0,  999.0,  999.0,  999.0,  999.0,  999.0,  999.0,  999.0
2014/01/03 01:20,  999.0,   -0.0,   -0.2,    0.5,    0.6,    0.5,    0.5,    0.2,    0.1,    0.8,    1.0,   -0.1,   -0.0,   -0.1,    0.2,    0.6,    0.2,    0.0,   -0.2,   -0.4,   -0.6,   -0.2,   -0.1,   -0.2,    0.0,    0.1,    0.0,    0.0,   -0.1,    0.2,   -0.2,    0.1,   -0.2,   -0.3,   -0.1,    0.1,    0.3,   -0.1,   -0.2,   -0.1,   -0.2,   -0.0,    0.1,    0.0,    0.2,    0.1,   -0.1,   -0.1,   -0.0,    0.1,    0.1,    0.1,    0.2,    0.0,   -0.0,   -0.0,    0.1,    0.1,    0.0,   -0.1,   -0.1,   -0.1,    0.0,   -0.0,   -0.2,   -0.0,    0.1,   -0.2,    0.3,    0.2,  999.0,   -0.4,  999.0,  999.0,  999.0,  999.0,  999.0,  999.0,  999.0,  999.0
2014/01/03 01:30,  999.0,    0.6,    0.6,    0.1,   -0.8,    0.8,    0.9,    0.3,    1.2,    3.2,   -0.6,    1.8,    1.4,    0.3,   -0.1,    0.3,   -0.1,   -0.2,   -0.3,   -0.3,   -0.5,   -0.1,   -0.2,   -0.1,    0.1,   -0.1,    0.1,    0.0,    0.0,    0.0,    0.1,   -0.1,   -0.1,   -0.1,    0.2,    0.0,    0.1,    0.1,    0.0,   -0.1,   -0.3,   -0.2,   -0.1,    0.0,   -0.2,    0.0,    0.1,    0.1,    0.1,    0.2,   -0.1,   -0.2,   -0.2,   -0.2,    0.1,   -0.1,   -0.3,    0.0,   -0.1,    0.1,   -0.0,    0.1,    0.2,    0.0,  999.0,   -0.1,    0.1,   -0.1,  999.0,   -0.1,   -0.1,   -0.3,  999.0,   -0.0,    0.1,  999.0,  999.0,  999.0,  999.0,  999.0
2014/01/03 01:40,  999.0,    0.5,    0.6,    0.8,    1.2,    1.4,    1.3,    1.3,    0.8,    1.0,    1.5,    0.0,    0.2,   -0.2,   -0.4,   -0.1,   -0.5,   -0.4,   -0.3,   -0.3,   -0.2,    0.0,   -0.1,    0.1,    0.1,    0.1,   -0.0,    0.1,   -0.1,   -0.2,   -0.1,   -0.1,  999.0,    0.4,   -0.1,    0.1,   -0.0,    0.1,    0.3,    0.1,    0.0,   -0.1,    0.1,   -0.0,   -0.2,   -0.1,    0.0,    0.1,   -0.1,    0.1,   -0.1,    0.1,   -0.0,   -0.0,    0.1,    0.3,    0.2,    0.0,   -0.2,    0.0,   -0.0,    0.2,   -0.1,    0.2,   -0.1,    0.1,   -0.1,    0.1,   -0.1,  999.0,  999.0,    0.2,    0.2,    0.2,    0.0,  999.0,  999.0,  999.0,  999.0,  999.0
2014/01/03 01:50,  999.0,    0.5,    0.4,    0.4,    0.0,   -0.1,    0.1,    0.2,    0.8,    0.3,    0.8,   -0.4,   -0.0,   -0.2,    0.7,    0.5,  999.0,   -2.8,   -1.6,   -1.4,   -0.6,   -0.0,    0.0,    0.1,    0.3,    0.0,   -0.3,   -0.1,    0.0,    0.1,   -0.2,    0.0,   -0.1,    0.1,   -0.2,   -0.1,   -0.1,    0.1,    0.1,    0.1,   -0.1,   -0.1,    0.0,   -0.1,   -0.0,    0.1,    0.0,    0.0,   -0.0,    0.1,    0.2,    0.1,   -0.0,   -0.0,    0.0,   -0.0,    0.1,   -0.1,   -0.1,   -0.1,    0.1,    0.1,   -0.1,    0.0,    0.1,    0.0,  999.0,    0.3,    0.2,  999.0,    0.2,  999.0,  999.0,    0.1,   -0.1,  999.0,  999.0,  999.0,  999.0,  999.0
2014/01/03 02:00,  999.0,    0.3,    0.4,    0.3,    0.4,    0.2,    0.5,    1.3,    1.7,    2.6,    3.1,    2.6,    1.9,    2.9,  999.0,  999.0,  999.0,  999.0,  999.0,  999.0,  999.0,    0.1,    0.2,    0.1,   -0.1,   -0.1,   -0.0,    0.1,   -0.0,    0.0,    0.2,   -0.0,    0.1,  999.0,   -0.1,   -0.2,    0.1,   -0.1,   -0.2,   -0.3,    0.1,    0.0,    0.1,    0.2,   -0.2,   -0.1,    0.1,    0.0,    0.0,   -0.2,   -0.3,   -0.1,    0.0,    0.1,    0.0,    0.2,    0.1,    0.2,   -0.1,    0.1,    0.2,    0.2,    0.0,    0.0,    0.2,    0.1,   -0.1,  999.0,    0.3,  999.0,   -0.1,   -0.1,  999.0,  999.0,   -0.2,  999.0,  999.0,  999.0,  999.0,  999.0
2014/01/03 02:10,  999.0,    0.1,    0.1,    0.1,    0.4,    0.3,    0.7,    1.0,    1.0,    1.9,    2.5,    1.5,    1.5,    3.5,  999.0,  999.0,  999.0,  999.0,  999.0,   -0.4,   -0.2,    0.1,   -0.1,    0.1,    0.1,   -0.0,    0.1,   -0.3,   -0.2,   -0.1,    0.0,  999.0,   -0.1,   -0.1,    0.2,    0.1,   -0.0,    0.1,   -0.1,   -0.0,   -0.1,   -0.0,   -0.1,   -0.1,   -0.1,    0.2,    0.0,   -0.1,   -0.0,    0.1,   -0.1,   -0.1,   -0.2,   -0.0,   -0.1,   -0.0,    0.2,    0.1,   -0.2,    0.1,    0.1,    0.2,   -0.1,   -0.0,    0.1,    0.0,  999.0,    0.0,    0.2,  999.0,    0.2,    0.1,    0.0,    0.2,  999.0,  999.0,  999.0,  999.0,  999.0,  999.0
2014/01/03 02:20,  999.0,    0.1,    0.0,    0.1,    0.1,    0.5,    0.5,    0.3,    0.4,    0.6,    1.4,    1.3,    0.6,  999.0,  999.0,  999.0,  999.0,    0.1,   -1.3,   -1.1,   -0.1,    0.0,  999.0,    0.1,   -0.0,   -0.1,   -0.0,    0.1,    0.1,   -0.1,   -0.3,   -0.4,    0.3,  999.0,    0.1,    0.0,   -0.1,   -0.0,   -0.0,   -0.3,   -0.1,   -0.2,   -0.2,   -0.2,   -0.3,   -0.2,    0.0,   -0.1,   -0.1,   -0.2,   -0.2,   -0.1,   -0.1,    0.0,    0.0,   -0.2,    0.0,   -0.2,   -0.1,    0.1,    0.2,    0.1,    0.2,   -0.3,    0.0,    0.1,    0.1,   -0.2,    0.1,  999.0,  999.0,  999.0,  999.0,  999.0,  999.0,  999.0,  999.0,  999.0,  999.0,  999.0
2014/01/03 02:30,  999.0,  999.0,   -0.1,    0.0,   -0.1,   -0.0,   -0.3,    0.1,   -0.1,    0.4,    0.5,    0.1,   -0.5,  999.0,  999.0,  999.0,  999.0,  999.0,  999.0,   -1.2,   -0.2,    0.0,    0.0,   -0.1,   -0.1,   -0.2,    0.1,   -0.4,   -0.0,    0.2,    0.3,  999.0,   -0.1,   -0.6,   -0.2,  999.0,   -0.0,  999.0,   -0.2,   -0.2,   -0.1,   -0.1,   -0.1,   -0.1,   -0.2,   -0.1,    0.3,   -0.0,    0.2,   -0.3,   -0.1,   -0.1,   -0.0,    0.3,    0.2,    0.1,    0.1,   -0.2,   -0.0,    0.2,   -0.1,    0.1,   -0.1,   -0.1,    0.0,   -0.3,   -0.0,   -0.0,    0.1,  999.0,  999.0,  999.0,  999.0,  999.0,  999.0,  999.0,  999.0,  999.0,  999.0,  999.0
2014/01/03 02:40,  999.0,    0.0,   -0.8,   -0.0,    0.4,    0.3,   -0.3,    0.1,  999.0,    0.5,    0.9,   -0.9,   -0.2,  999.0,    1.2,   -0.0,  999.0,  999.0,   -1.0,   -0.5,   -0.1,   -0.1,   -0.1,   -0.1,   -0.5,    0.2,    0.0,   -0.0,  999.0,    0.2,  999.0,  999.0,   -0.3,    0.0,    0.1,  999.0,    0.1,   -0.0,    0.2,   -0.1,   -0.3,   -0.3,   -0.0,    0.1,    0.2,    0.2,   -0.2,   -0.1,   -0.4,    0.1,   -0.3,   -0.3,   -0.1,    0.0,   -0.3,    0.2,    0.1,   -0.2,   -0.1,   -0.0,   -0.2,    0.1,   -0.1,   -0.0,  999.0,    0.1,  999.0,    0.2,  999.0,  999.0,  999.0,  999.0,  999.0,  999.0,  999.0,  999.0,  999.0,  999.0,  999.0,  999.0
2014/01/03 02:50,  999.0,    0.0,    0.0,   -0.2,    0.3,    0.5,    1.2,    1.5,    1.3,    1.4,    1.7,    1.9,    6.3,    6.1,    6.8,  999.0,  999.0,    1.1,  999.0,   -1.0,    0.0,   -0.0,   -0.1,   -0.2,   -0.1,    0.3,    0.1,    0.3,    0.1,  999.0,    0.1,  999.0,   -0.2,  999.0,   -0.2,   -0.2,   -0.2,    0.0,  999.0,    0.2,    0.1,   -0.2,    0.1,   -0.1,   -0.0,    0.0,   -0.1,    0.0,   -0.1,    0.0,    0.1,   -0.2,   -0.2,   -0.1,    0.1,    0.1,    0.3,   -0.0,    0.0,   -0.2,   -0.0,    0.1,    0.1,    0.0,   -0.1,    0.2,   -0.1,  999.0,  999.0,  999.0,  999.0,  999.0,  999.0,  999.0,  999.0,  999.0,  999.0,  999.0,  999.0,  999.0
2014/01/03 03:00,  999.0,    0.0,   -0.1,    0.1,    0.4,    1.0,    1.1,    1.8,    1.5,    1.4,    3.5,    4.1,    5.1,    6.2,    7.7,    8.8,  999.0,  999.0,  999.0,   -0.1,    0.2,    0.1,    0.1,    0.1,    0.0,   -0.3,    0.1,    0.1,  999.0,   -0.4,  999.0,    0.3,   -0.3,    0.2,  999.0,  999.0,    0.0,    0.0,   -0.2,   -0.1,   -0.5,   -0.1,   -0.1,    0.0,    0.0,    0.0,    0.2,    0.1,   -0.0,   -0.1,  999.0,   -0.4,   -0.2,   -0.4,  999.0,    0.3,   -0.1,   -0.3,   -0.3,   -0.1,   -0.1,   -0.5,   -0.1,    0.1,  999.0,  999.0,  999.0,   -0.2,  999.0,  999.0,  999.0,  999.0,  999.0,  999.0,  999.0,  999.0,  999.0,  999.0,  999.0,  999.0
2014/01/03 03:10,  999.0,    0.0,   -0.0,    0.4,    1.1,    1.1,    1.9,    1.0,    1.0,    3.1,    4.4,    4.1,    3.5,    5.6,    6.7,    7.7,    8.8,  999.0,  999.0,  999.0,    0.3,    0.1,    0.1,   -0.0,    0.0,    0.3,   -0.2,   -0.1,   -0.4,  999.0,    0.2,    0.2,    0.1,   -0.3,  999.0,   -0.5,    0.0,  999.0,   -0.2,  999.0,   -0.3,  999.0,    0.3,   -0.0,    0.0,   -0.1,   -0.1,   -0.1,   -0.0,   -0.2,   -0.2,  999.0,    0.1,  999.0,    0.1,    0.5,    0.3,   -0.2,    0.1,    0.0,   -0.2,    0.0,    0.1,    0.1,   -0.0,  999.0,  999.0,  999.0,  999.0,  999.0,  999.0,  999.0,  999.0,  999.0,  999.0,  999.0,  999.0,  999.0,  999.0,  999.0
2014/01/03 03:20,  999.0,    0.1,   -0.1,    0.1,    1.2,    1.6,    1.2,    1.2,    1.7,    2.5,    4.2,    2.9,    2.2,    4.8,    6.5,    9.5,   10.7,  999.0,  999.0,    0.6,   -0.1,    0.2,   -0.2,   -0.1,  999.0,    0.1,   -0.2,    0.1,   -0.2,    0.1,   -0.4,  999.0,    0.2,  999.0,    0.3,  999.0,  999.0,   -0.0,  999.0,  999.0,  999.0,   -0.2,    0.1,   -0.2,    0.2,    0.1,    0.1,    0.0,    0.0,    0.1,    0.3,  999.0,   -0.0,   -0.0,   -0.2,    0.1,   -0.2,   -0.2,   -0.4,   -0.4,    0.1,    0.1,   -0.0,    0.3,   -0.2,   -0.2,  999.0,  999.0,  999.0,  999.0,  999.0,  999.0,  999.0,  999.0,  999.0,  999.0,  999.0,  999.0,  999.0,  999.0
2014/01/03 03:30,  999.0,   -0.0,   -0.0,   -0.1,    0.4,    0.7,    0.9,    1.1,    1.1,    1.4,    2.2,    2.1,    3.7,    5.1,    6.3,  999.0,  999.0,    3.0,    1.9,    0.1,    0.0,   -0.3,  999.0,    0.1,    0.0,   -0.4,   -0.0,    0.0,   -0.2,    0.1,  999.0,    0.3,    0.1,  999.0,   -0.2,    0.3,  999.0,    0.4,  999.0,    0.1,   -0.3,  999.0,    0.1,    0.1,    0.0,   -0.1,   -0.1,    0.1,    0.0,   -0.0,    0.1,    0.0,    0.2,   -0.2,   -0.3,    0.2,    0.2,    0.0,   -0.1,   -0.1,   -0.0,   -0.1,   -0.1,   -0.0,    0.1,    0.0,    0.2,    0.2,    0.0,  999.0,  999.0,  999.0,  999.0,  999.0,  999.0,  999.0,  999.0,  999.0,  999.0,  999.0
2014/01/03 03:40,  999.0,    0.1,    0.1,    0.1,    0.3,    0.9,    0.8,    0.6,    0.6,    0.9,    3.6,    4.7,    6.0,    5.6,  999.0,  999.0,    3.8,    4.0,    0.7,    0.1,    0.1,    0.2,    0.2,    0.3,    0.0,    0.0,    0.3,  999.0,    0.0,    0.1,    0.0,    0.2,  999.0,  999.0,  999.0,   -0.7,   -0.2,  999.0,  999.0,  999.0,  999.0,    0.1,   -0.1,   -0.1,   -0.2,   -0.1,   -0.1,    0.0,    0.0,    0.1,   -0.1,    0.3,    0.0,    0.1,    0.2,    0.0,   -0.1,    0.1,    0.0,   -0.0,    0.1,    0.1,    0.1,   -0.1,  999.0,    0.5,  999.0,    0.4,  999.0,  999.0,  999.0,  999.0,  999.0,  999.0,  999.0,  999.0,  999.0,  999.0,  999.0,  999.0
2014/01/03 03:50,  999.0,   -0.1,   -0.1,    0.3,    0.4,    0.8,    0.9,    1.0,    2.0,    2.1,    2.0,    2.8,    3.9,    4.4,    4.9,    6.6,  999.0,    2.1,    0.0,   -0.3,   -0.2,   -0.1,    0.0,    0.0,  999.0,    0.0,   -0.2,   -0.2,  999.0,    0.4,   -0.0,  999.0,  999.0,    0.0,  999.0,  999.0,  999.0,    0.1,    0.1,   -0.1,   -0.4,   -0.4,   -0.2,   -0.4,   -0.0,    0.3,   -0.1,    0.2,   -0.2,   -0.1,    0.5,   -0.1,    0.2,    0.5,    0.3,    0.3,    0.3,    0.1,   -0.2,   -0.2,    0.2,    0.4,    0.2,    0.1,   -0.1,   -0.5,  999.0,  999.0,  999.0,  999.0,  999.0,  999.0,  999.0,  999.0,  999.0,  999.0,  999.0,  999.0,  999.0,  999.0
2014/01/03 04:00,  999.0,    0.2,    0.0,    0.4,    0.2,    0.4,    0.9,    2.2,    2.3,    2.9,    2.3,    2.3,    2.2,    2.2,    2.5,    4.0,  999.0,   -0.3,   -0.3,   -0.1,   -0.2,   -0.2,   -0.0,    0.0,    0.1,   -0.1,   -0.1,   -0.1,   -0.1,   -0.1,  999.0,  999.0,  999.0,   -0.1,  999.0,  999.0,  999.0,  999.0,  999.0,   -0.3,   -0.4,   -0.1,   -0.1,   -0.0,   -0.1,    0.0,  999.0,   -0.0,    0.1,  999.0,   -0.1,  999.0,   -0.3,  999.0,   -0.2,    0.1,   -0.1,   -0.2,   -0.2,   -0.1,    0.3,    0.3,   -0.2,   -0.2,   -0.4,   -0.2,   -0.2,  999.0,  999.0,  999.0,  999.0,  999.0,  999.0,  999.0,  999.0,  999.0,  999.0,  999.0,  999.0,  999.0
2014/01/03 04:10,  999.0,    0.1,    0.4,    0.3,    0.4,    0.5,    0.7,    1.6,    1.2,    1.1,    0.8,    0.7,    0.7,    1.2,    1.6,    0.8,   -0.2,   -0.8,   -0.5,   -0.2,    0.0,    0.1,   -0.0,   -0.2,   -0.1,   -0.1,   -0.0,   -0.2,   -0.4,   -0.0,  999.0,    0.3,   -0.1,  999.0,  999.0,  999.0,  999.0,  999.0,   -0.1,   -0.1,   -0.3,   -0.3,  999.0,    0.1,   -0.2,   -0.0,   -0.2,   -0.2,   -0.2,  999.0,    0.3,    0.3,    0.1,    0.1,    0.1,    0.0,    0.1,    0.1,    0.3,    0.2,   -0.2,    0.0,    0.1,   -0.1,    0.1,   -0.0,  999.0,   -0.2,  999.0,  999.0,  999.0,  999.0,  999.0,  999.0,  999.0,  999.0,  999.0,  999.0,  999.0,  999.0
2014/01/03 04:20,  999.0,    0.1,    0.1,    0.8,    0.5,    0.4,    0.6,    0.3,    0.5,    0.5,    0.6,    0.6,    0.4,    0.8,    1.7,  999.0,  999.0,   -1.6,   -0.3,   -0.1,    0.0,    0.0,   -0.1,   -0.1,   -0.1,   -0.1,   -0.1,    0.1,  999.0,    0.1,  999.0,   -0.2,   -0.2,  999.0,  999.0,   -0.2,  999.0,  999.0,  999.0,  999.0,  999.0,    0.0,  999.0,   -0.3,   -0.1,   -0.3,    0.1,    0.1,   -0.1,  999.0,  999.0,   -0.2,    0.2,   -0.0,    0.5,    0.2,   -0.1,    0.0,   -0.2,    0.1,    0.2,   -0.2,    0.0,    0.1,  999.0,   -0.2,  999.0,  999.0,    0.1,  999.0,  999.0,  999.0,  999.0,  999.0,  999.0,  999.0,  999.0,  999.0,  999.0,  999.0
2014/01/03 04:30,  999.0,    0.0,    0.1,    0.4,    0.5,    0.8,    1.6,    0.8,    0.2,    0.2,    0.2,    0.1,    0.1,  999.0,  999.0,  999.0,  999.0,  999.0,   -0.0,  999.0,    0.4,  999.0,   -0.0,  999.0,  999.0,    0.0,  999.0,    0.2,  999.0,  999.0,  999.0,  999.0,  999.0,  999.0,  999.0,  999.0,  999.0,    0.1,  999.0,  999.0,  999.0,  999.0,  999.0,   -0.3,  999.0,   -0.3,    0.1,    0.1,  999.0,  999.0,  999.0,  999.0,  999.0,   -0.1,    0.2,   -0.2,    0.4,    0.2,   -0.1,    0.4,    0.0,   -0.2,   -0.0,    0.7,    0.4,  999.0,  999.0,  999.0,  999.0,  999.0,  999.0,  999.0,  999.0,  999.0,  999.0,  999.0,  999.0,  999.0,  999.0,  999.0
2014/01/03 04:40,  999.0,   -0.1,   -0.1,    0.1,    0.8,    0.6,    0.8,    0.6,    0.8,    0.6,   -0.4,   -0.1,    0.4,  999.0,    1.8,  999.0,  999.0,  999.0,    6.5,  999.0,    0.6,   -0.4,  999.0,    0.1,   -0.1,  999.0,  999.0,   -0.2,    0.1,  999.0,  999.0,   -0.0,  999.0,  999.0,  999.0,  999.0,  999.0,  999.0,  999.0,  999.0,  999.0,  999.0,  999.0,  999.0,  999.0,  999.0,    0.0,  999.0,  999.0,   -0.2,  999.0,  999.0,  999.0,  999.0,  999.0,    0.3,    0.0,   -0.3,    0.0,   -0.1,   -0.0,   -0.1,  999.0,   -0.1,    0.1,    0.1,  999.0,  999.0,  999.0,  999.0,  999.0,  999.0,  999.0,  999.0,  999.0,  999.0,  999.0,  999.0,  999.0,  999.0
2014/01/03 04:50,  999.0,   -0.1,   -0.0,   -0.0,    0.1,    0.0,    0.5,    0.2,    0.4,    0.4,    0.3,   -1.1,   -0.9,   -1.0,    0.3,    3.6,    4.6,  999.0,    1.9,    0.6,    0.1,   -0.1,   -0.0,   -0.2,   -0.2,    0.2,  999.0,   -0.1,    0.1,  999.0,   -0.4,   -0.3,  999.0,  999.0,  999.0,  999.0,  999.0,    0.1,  999.0,  999.0,   -0.6,   -0.1,   -0.1,    0.0,  999.0,  999.0,  999.0,  999.0,  999.0,  999.0,  999.0,  999.0,    0.1,   -0.1,    0.4,    0.1,    0.1,    0.0,    0.2,    0.1,    0.1,  999.0,   -0.2,    0.1,   -0.0,    0.5,  999.0,  999.0,  999.0,  999.0,  999.0,  999.0,  999.0,  999.0,  999.0,  999.0,  999.0,  999.0,  999.0,  999.0
2014/01/03 05:00,  999.0,   -0.3,   -0.3,   -0.4,    0.3,    0.3,    0.3,    0.3,    0.3,    0.3,    1.3,    1.1,    0.3,   -1.1,   -0.2,    0.5,    2.1,    5.1,    2.8,    0.4,   -0.0,   -0.2,    0.1,    0.2,   -0.2,    0.1,   -0.1,    0.2,   -0.0,   -0.1,    0.2,  999.0,  999.0,  999.0,  999.0,  999.0,  999.0,  999.0,  999.0,  999.0,  999.0,  999.0,  999.0,  999.0,  999.0,  999.0,  999.0,  999.0,  999.0,  999.0,   -0.0,    0.1,    0.2,    0.6,   -0.1,   -0.2,   -0.2,    0.1,   -0.1,   -0.3,  999.0,   -0.6,   -0.3,   -0.1,    0.2,  999.0,  999.0,  999.0,  999.0,  999.0,  999.0,  999.0,  999.0,  999.0,  999.0,  999.0,  999.0,  999.0,  999.0,  999.0
2014/01/03 05:10,  999.0,   -0.6,   -0.8,   -0.3,   -0.1,   -0.1,   -0.0,   -0.0,   -0.1,   -0.2,   -0.2,   -0.1,   -0.3,   -1.3,   -1.3,    1.4,    4.6,  999.0,    3.5,    0.3,    0.1,    0.1,   -0.4,    0.2,   -0.3,  999.0,  999.0,   -0.0,   -0.0,   -0.1,  999.0,    0.1,  999.0,  999.0,  999.0,  999.0,  999.0,  999.0,  999.0,  999.0,  999.0,  999.0,  999.0,  999.0,  999.0,  999.0,  999.0,  999.0,  999.0,  999.0,  999.0,  999.0,   -0.1,  999.0,    0.1,    0.3,    0.5,    0.0,   -0.1,    0.1,    0.2,  999.0,   -0.2,    0.2,   -0.1,  999.0,  999.0,    0.1,  999.0,  999.0,  999.0,  999.0,  999.0,  999.0,  999.0,  999.0,  999.0,  999.0,  999.0,  999.0
2014/01/03 05:20,  999.0,   -0.7,   -1.0,   -1.4,   -0.9,   -0.4,   -0.1,   -0.2,   -0.6,   -0.6,   -0.3,    0.9,    0.2,   -0.2,   -0.6,    3.4,  999.0,    4.4,    3.5,    0.3,   -0.0,   -0.1,    0.2,   -0.1,    0.2,    0.1,  999.0,    0.1,    0.5,  999.0,    0.1,   -0.2,  999.0,  999.0,  999.0,  999.0,  999.0,  999.0,  999.0,  999.0,  999.0,  999.0,  999.0,  999.0,  999.0,  999.0,  999.0,  999.0,  999.0,  999.0,  999.0,  999.0,  999.0,    0.2,   -0.3,    0.0,   -0.2,   -0.3,  999.0,    0.0,   -0.2,    0.3,  999.0,   -0.2,   -0.1,  999.0,  999.0,  999.0,  999.0,  999.0,  999.0,  999.0,  999.0,  999.0,  999.0,  999.0,  999.0,  999.0,  999.0,  999.0
2014/01/03 05:30,  999.0,   -0.9,   -1.1,   -1.4,   -0.3,   -0.4,   -0.8,   -0.3,   -1.6,   -2.2,   -1.7,   -0.6,   -1.3,   -1.5,    1.1,    4.8,  999.0,  999.0,  999.0,  999.0,   -0.3,    0.2,  999.0,    0.1,  999.0,  999.0,  999.0,   -0.2,  999.0,  999.0,   -0.2,  999.0,  999.0,  999.0,  999.0,  999.0,  999.0,  999.0,  999.0,  999.0,  999.0,  999.0,  999.0,  999.0,  999.0,  999.0,  999.0,  999.0,  999.0,  999.0,  999.0,  999.0,  999.0,    0.0,   -0.1,   -0.2,   -0.1,   -0.0,  999.0,  999.0,  999.0,   -0.2,    0.1,  999.0,    0.0,  999.0,  999.0,  999.0,  999.0,  999.0,  999.0,  999.0,  999.0,  999.0,  999.0,  999.0,  999.0,  999.0,  999.0,  999.0
2014/01/03 05:40,  999.0,   -1.2,   -1.9,   -1.4,   -1.2,   -0.9,   -1.6,   -2.4,   -3.1,   -3.7,   -2.4,   -1.2,    0.1,    0.3,    1.2,  999.0,  999.0,    2.9,    3.5,  999.0,    0.3,  999.0,  999.0,  999.0,  999.0,  999.0,  999.0,   -0.4,   -0.6,  999.0,  999.0,  999.0,  999.0,  999.0,  999.0,  999.0,  999.0,  999.0,  999.0,  999.0,  999.0,  999.0,  999.0,  999.0,  999.0,  999.0,  999.0,  999.0,  999.0,  999.0,  999.0,  999.0,  999.0,  999.0,   -0.2,   -0.1,    0.0,   -0.2,  999.0,  999.0,    0.0,    0.0,  999.0,  999.0,  999.0,  999.0,  999.0,  999.0,  999.0,  999.0,  999.0,  999.0,  999.0,  999.0,  999.0,  999.0,  999.0,  999.0,  999.0,  999.0
2014/01/03 05:50,  999.0,   -0.2,   -1.2,   -1.4,   -1.2,   -1.2,   -1.3,   -1.8,   -1.6,   -2.1,   -2.1,   -1.0,    1.0,    1.4,  999.0,  999.0,  999.0,  999.0,  999.0,   -0.1,    0.2,  999.0,  999.0,  999.0,  999.0,  999.0,   -0.1,  999.0,  999.0,  999.0,   -0.1,  999.0,  999.0,  999.0,  999.0,  999.0,  999.0,  999.0,  999.0,  999.0,  999.0,  999.0,  999.0,  999.0,  999.0,  999.0,  999.0,  999.0,  999.0,  999.0,  999.0,  999.0,  999.0,  999.0,  999.0,  999.0,    0.0,  999.0,  999.0,  999.0,  999.0,  999.0,  999.0,  999.0,  999.0,  999.0,  999.0,  999.0,  999.0,  999.0,  999.0,  999.0,  999.0,  999.0,  999.0,  999.0,  999.0,  999.0,  999.0,  999.0
2014/01/03 06:00,  999.0,   -0.1,   -0.6,   -1.2,   -1.1,   -1.1,   -1.0,   -1.1,   -1.4,   -1.4,   -2.9,   -2.3,    0.0,    1.2,  999.0,  999.0,  999.0,  999.0,  999.0,  999.0,  999.0,  999.0,  999.0,  999.0,  999.0,  999.0,  999.0,  999.0,    0.1,  999.0,   -0.0,    0.0,  999.0,  999.0,  999.0,  999.0,  999.0,  999.0,  999.0,  999.0,  999.0,  999.0,  999.0,  999.0,    0.2,  999.0,  999.0,  999.0,  999.0,  999.0,  999.0,  999.0,  999.0,   -0.5,   -0.4,  999.0,   -0.1,   -0.0,   -0.0,   -0.0,  999.0,  999.0,  999.0,    0.2,    0.5,  999.0,    0.3,  999.0,  999.0,  999.0,  999.0,  999.0,  999.0,  999.0,  999.0,  999.0,  999.0,  999.0,  999.0,  999.0
2014/01/03 06:10,  999.0,   -0.4,   -0.6,   -1.1,   -2.1,   -1.6,   -1.3,   -0.8,   -0.5,   -0.0,    0.1,   -0.6,    0.1,    0.6,    1.9,    3.9,  999.0,  999.0,  999.0,    0.2,   -0.3,    0.1,  999.0,  999.0,  999.0,  999.0,  999.0,  999.0,   -0.2,  999.0,  999.0,    0.1,  999.0,  999.0,  999.0,  999.0,  999.0,  999.0,  999.0,  999.0,  999.0,  999.0,  999.0,  999.0,  999.0,  999.0,  999.0,  999.0,  999.0,  999.0,  999.0,  999.0,  999.0,  999.0,  999.0,  999.0,    0.2,  999.0,  999.0,  999.0,  999.0,  999.0,  999.0,    0.5,    0.3,  999.0,  999.0,  999.0,  999.0,  999.0,  999.0,  999.0,  999.0,  999.0,  999.0,  999.0,  999.0,  999.0,  999.0,  999.0
2014/01/03 06:20,  999.0,   -0.2,   -0.4,   -1.1,   -1.6,   -1.3,   -0.9,   -0.4,   -0.4,   -1.0,   -1.4,    0.7,    0.0,    1.0,    2.2,    6.6,  999.0,    4.3,  999.0,    0.3,   -0.1,  999.0,  999.0,  999.0,  999.0,  999.0,  999.0,  999.0,  999.0,  999.0,  999.0,  999.0,  999.0,  999.0,  999.0,  999.0,  999.0,  999.0,  999.0,  999.0,  999.0,  999.0,  999.0,  999.0,  999.0,  999.0,  999.0,  999.0,  999.0,  999.0,  999.0,  999.0,  999.0,  999.0,  999.0,  999.0,  999.0,  999.0,  999.0,  999.0,  999.0,  999.0,  999.0,   -0.2,  999.0,  999.0,  999.0,  999.0,  999.0,  999.0,  999.0,  999.0,  999.0,  999.0,  999.0,  999.0,  999.0,  999.0,  999.0,  999.0
2014/01/03 06:30,  999.0,    0.0,   -1.0,   -2.0,   -1.8,   -0.7,   -0.8,   -0.4,    0.7,    0.7,    0.8,    1.4,    1.2,    1.4,    1.9,    5.0,  999.0,    3.2,    2.6,    0.1,    0.8,    0.1,  999.0,  999.0,  999.0,  999.0,  999.0,  999.0,  999.0,  999.0,  999.0,  999.0,  999.0,  999.0,  999.0,  999.0,  999.0,  999.0,  999.0,  999.0,  999.0,  999.0,  999.0,  999.0,  999.0,  999.0,  999.0,  999.0,  999.0,  999.0,  999.0,  999.0,  999.0,  999.0,  999.0,  999.0,  999.0,  999.0,  999.0,  999.0,  999.0,    0.2,  999.0,  999.0,  999.0,   -0.1,  999.0,  999.0,  999.0,  999.0,  999.0,  999.0,  999.0,  999.0,  999.0,  999.0,  999.0,  999.0,  999.0,  999.0
2014/01/03 06:40,  999.0,   -0.1,   -1.4,   -2.2,   -1.3,   -0.9,   -1.0,   -0.4,    0.1,    0.7,    1.6,    2.9,    2.5,    2.9,    4.3,  999.0,  999.0,    4.1,    3.0,    0.5,  999.0,  999.0,  999.0,  999.0,  999.0,  999.0,  999.0,  999.0,  999.0,  999.0,  999.0,  999.0,  999.0,  999.0,  999.0,  999.0,  999.0,  999.0,  999.0,  999.0,  999.0,  999.0,  999.0,  999.0,  999.0,  999.0,  999.0,  999.0,  999.0,  999.0,  999.0,  999.0,  999.0,  999.0,  999.0,  999.0,  999.0,  999.0,  999.0,  999.0,  999.0,    0.1,  999.0,  999.0,  999.0,  999.0,  999.0,  999.0,   -0.3,  999.0,  999.0,  999.0,  999.0,  999.0,  999.0,  999.0,  999.0,  999.0,  999.0,  999.0
2014/01/03 06:50,  999.0,   -0.1,   -1.1,   -3.0,   -1.6,   -1.5,   -1.0,   -0.4,   -0.2,   -0.1,    1.5,    1.8,    1.6,    1.6,    3.7,  999.0,  999.0,    4.4,  999.0,  999.0,    0.2,    0.1,    0.4,    0.2,  999.0,  999.0,  999.0,    0.2,  999.0,  999.0,  999.0,  999.0,  999.0,  999.0,  999.0,  999.0,  999.0,  999.0,  999.0,  999.0,  999.0,  999.0,  999.0,  999.0,  999.0,  999.0,  999.0,  999.0,  999.0,  999.0,  999.0,  999.0,  999.0,  999.0,  999.0,  999.0,  999.0,  999.0,  999.0,  999.0,  999.0,    0.3,  999.0,  999.0,  999.0,  999.0,  999.0,  999.0,  999.0,  999.0,  999.0,  999.0,  999.0,  999.0,  999.0,  999.0,  999.0,  999.0,  999.0,  999.0
2014/01/03 07:00,  999.0,    0.4,   -1.3,   -0.9,   -0.5,   -1.7,   -1.2,    0.2,   -0.3,    0.3,    2.0,    2.1,    2.2,    3.1,  999.0,  999.0,    2.9,  999.0,  999.0,    0.2,    0.2,  999.0,  999.0,  999.0,  999.0,  999.0,  999.0,  999.0,    0.0,  999.0,  999.0,  999.0,  999.0,  999.0,  999.0,  999.0,  999.0,  999.0,  999.0,  999.0,  999.0,  999.0,  999.0,  999.0,  999.0,  999.0,  999.0,  999.0,  999.0,  999.0,  999.0,  999.0,  999.0,  999.0,  999.0,  999.0,  999.0,  999.0,    0.2,  999.0,  999.0,  999.0,  999.0,  999.0,  999.0,  999.0,  999.0,  999.0,  999.0,  999.0,  999.0,  999.0,  999.0,  999.0,  999.0,  999.0,  999.0,  999.0,  999.0,  999.0
2014/01/03 07:10,  999.0,   -0.9,   -1.0,   -1.1,   -1.7,   -2.3,   -1.7,   -1.0,   -0.6,   -0.4,    1.6,    1.6,  999.0,  999.0,  999.0,  999.0,    3.3,  999.0,    0.2,    0.2,  999.0,  999.0,  999.0,  999.0,  999.0,  999.0,  999.0,  999.0,  999.0,  999.0,  999.0,  999.0,  999.0,  999.0,  999.0,  999.0,  999.0,  999.0,  999.0,  999.0,  999.0,  999.0,  999.0,  999.0,  999.0,  999.0,  999.0,  999.0,  999.0,  999.0,  999.0,  999.0,  999.0,  999.0,  999.0,  999.0,  999.0,  999.0,   -0.1,  999.0,  999.0,  999.0,  999.0,  999.0,  999.0,  999.0,  999.0,  999.0,  999.0,  999.0,  999.0,  999.0,  999.0,  999.0,  999.0,  999.0,  999.0,  999.0,  999.0,  999.0
2014/01/03 07:20,  999.0,   -0.4,   -1.2,   -1.6,   -2.3,   -3.1,   -1.5,   -0.6,   -1.3,   -0.5,   -0.3,   -1.1,  999.0,  999.0,  999.0,  999.0,  999.0,  999.0,  999.0,    0.4,    0.1,    0.9,  999.0,  999.0,  999.0,  999.0,  999.0,    0.0,  999.0,  999.0,  999.0,  999.0,  999.0,  999.0,  999.0,  999.0,  999.0,  999.0,  999.0,  999.0,  999.0,  999.0,  999.0,  999.0,  999.0,  999.0,  999.0,  999.0,  999.0,  999.0,  999.0,  999.0,  999.0,  999.0,  999.0,  999.0,  999.0,  999.0,  999.0,  999.0,   -0.1,    0.2,  999.0,  999.0,  999.0,  999.0,  999.0,  999.0,  999.0,  999.0,  999.0,  999.0,  999.0,  999.0,  999.0,  999.0,  999.0,  999.0,  999.0,  999.0
2014/01/03 07:30,  999.0,   -0.3,   -0.5,   -1.1,   -2.2,   -1.5,   -0.5,    1.2,    1.7,    0.5,    0.3,    0.8,    0.9,    2.1,    4.2,  999.0,  999.0,  999.0,  999.0,  999.0,  999.0,  999.0,  999.0,  999.0,  999.0,  999.0,  999.0,  999.0,  999.0,  999.0,  999.0,  999.0,  999.0,  999.0,  999.0,  999.0,  999.0,  999.0,  999.0,  999.0,  999.0,  999.0,  999.0,  999.0,  999.0,  999.0,  999.0,  999.0,  999.0,  999.0,  999.0,  999.0,  999.0,  999.0,  999.0,  999.0,  999.0,  999.0,  999.0,   -0.0,   -0.0,  999.0,  999.0,  999.0,  999.0,  999.0,  999.0,  999.0,  999.0,  999.0,  999.0,  999.0,  999.0,  999.0,  999.0,  999.0,  999.0,  999.0,  999.0,  999.0
2014/01/03 07:40,  999.0,   -0.1,    0.1,   -1.0,   -1.1,   -0.7,   -0.1,    0.7,   -0.0,   -0.4,    0.4,    0.7,    1.5,  999.0,  999.0,  999.0,  999.0,  999.0,   -0.7,    0.2,    0.2,    0.3,   -0.0,  999.0,  999.0,  999.0,  999.0,  999.0,  999.0,  999.0,  999.0,  999.0,  999.0,  999.0,  999.0,  999.0,  999.0,  999.0,  999.0,  999.0,  999.0,  999.0,  999.0,  999.0,  999.0,  999.0,  999.0,  999.0,  999.0,  999.0,  999.0,  999.0,  999.0,  999.0,  999.0,  999.0,  999.0,  999.0,  999.0,  999.0,  999.0,  999.0,  999.0,  999.0,  999.0,  999.0,  999.0,  999.0,  999.0,  999.0,  999.0,  999.0,  999.0,  999.0,  999.0,  999.0,  999.0,  999.0,  999.0,  999.0
2014/01/03 07:50,  999.0,    0.3,   -0.1,  999.0,   -0.8,   -0.2,    0.5,    0.6,    0.3,   -0.1,    0.1,    0.2,    1.4,    3.1,  999.0,  999.0,  999.0,  999.0,   -0.2,    0.1,    0.3,   -0.1,  999.0,  999.0,  999.0,  999.0,  999.0,  999.0,   -0.2,  999.0,  999.0,  999.0,  999.0,  999.0,  999.0,  999.0,  999.0,  999.0,  999.0,  999.0,  999.0,  999.0,  999.0,  999.0,  999.0,  999.0,  999.0,  999.0,  999.0,  999.0,  999.0,  999.0,  999.0,  999.0,    0.4,  999.0,  999.0,  999.0,  999.0,  999.0,  999.0,  999.0,  999.0,  999.0,  999.0,  999.0,   -0.3,  999.0,  999.0,  999.0,  999.0,  999.0,  999.0,  999.0,  999.0,  999.0,  999.0,  999.0,  999.0,  999.0
2014/01/03 08:00,  999.0,    0.0,   -0.3,   -1.0,   -0.7,   -0.4,   -0.1,    0.7,    0.6,    0.2,   -0.4,   -0.3,    0.5,    2.0,    4.8,  999.0,  999.0,   -0.3,    0.1,   -0.2,    0.4,   -0.2,   -0.4,  999.0,   -0.1,  999.0,  999.0,   -0.2,   -0.4,   -0.1,   -0.4,  999.0,  999.0,  999.0,  999.0,  999.0,  999.0,  999.0,  999.0,  999.0,  999.0,  999.0,  999.0,  999.0,  999.0,  999.0,  999.0,  999.0,  999.0,  999.0,  999.0,  999.0,  999.0,  999.0,  999.0,    0.0,  999.0,  999.0,   -0.1,    0.1,    0.0,  999.0,  999.0,  999.0,  999.0,  999.0,  999.0,  999.0,  999.0,  999.0,  999.0,  999.0,  999.0,  999.0,  999.0,  999.0,  999.0,  999.0,  999.0,  999.0
2014/01/03 08:10,  999.0,    0.1,   -0.1,   -0.9,   -0.3,    0.3,    1.2,    0.3,    0.5,   -0.5,   -1.2,   -1.7,   -0.6,    1.4,  999.0,  999.0,  999.0,   -0.7,   -0.1,   -0.1,   -0.1,   -0.1,  999.0,   -0.1,  999.0,    0.1,    0.2,   -0.0,   -0.0,  999.0,  999.0,  999.0,  999.0,  999.0,  999.0,  999.0,  999.0,  999.0,  999.0,  999.0,  999.0,  999.0,  999.0,  999.0,  999.0,  999.0,  999.0,  999.0,  999.0,  999.0,  999.0,  999.0,  999.0,  999.0,    0.2,  999.0,   -0.3,    0.1,   -0.2,   -0.0,    0.1,   -0.1,  999.0,   -0.1,  999.0,  999.0,   -0.1,  999.0,  999.0,  999.0,  999.0,  999.0,  999.0,  999.0,  999.0,  999.0,  999.0,  999.0,  999.0,  999.0
2014/01/03 08:20,  999.0,    0.1,   -0.6,   -0.6,    0.4,    0.7,    1.9,    1.0,    1.4,    0.8,   -0.8,   -0.9,    0.6,    2.7,    4.2,  999.0,  999.0,   -0.8,    0.0,    0.2,   -0.3,  999.0,  999.0,  999.0,   -0.1,  999.0,  999.0,  999.0,    0.2,  999.0,  999.0,  999.0,  999.0,  999.0,  999.0,  999.0,  999.0,  999.0,  999.0,  999.0,  999.0,   -0.0,  999.0,  999.0,   -0.0,  999.0,  999.0,  999.0,  999.0,  999.0,  999.0,  999.0,  999.0,  999.0,  999.0,    0.1,  999.0,    0.1,    0.2,  999.0,   -0.1,  999.0,  999.0,  999.0,  999.0,   -0.1,  999.0,   -0.4,   -0.3,  999.0,  999.0,  999.0,  999.0,  999.0,  999.0,  999.0,  999.0,  999.0,  999.0,  999.0
2014/01/03 08:30,  999.0,   -0.1,   -1.0,   -0.2,    0.3,    2.1,    2.8,    2.4,    2.4,    1.1,    0.2,    0.4,    2.1,    4.6,  999.0,  999.0,   -0.9,   -0.1,    0.2,   -0.0,   -0.0,   -0.1,    0.3,    0.1,    0.0,  999.0,  999.0,  999.0,  999.0,   -0.1,    0.6,    0.3,  999.0,  999.0,  999.0,  999.0,  999.0,  999.0,  999.0,  999.0,  999.0,  999.0,  999.0,    0.1,  999.0,  999.0,  999.0,  999.0,    0.0,  999.0,    0.1,  999.0,  999.0,  999.0,    0.1,    0.1,    0.1,    0.2,    0.2,    0.0,    0.2,   -0.1,    0.1,  999.0,    0.2,    0.2,  999.0,  999.0,  999.0,  999.0,  999.0,  999.0,  999.0,  999.0,  999.0,  999.0,  999.0,  999.0,  999.0,  999.0
2014/01/03 08:40,  999.0,   -0.4,   -0.8,   -0.3,   -0.2,    1.2,    0.3,    3.0,    2.3,    2.7,    2.3,    2.5,    3.4,    4.5,    2.9,  999.0,    0.4,    0.3,    0.1,    0.1,   -0.1,   -0.1,    0.0,    0.1,   -0.1,    0.2,    0.0,  999.0,   -0.1,   -0.2,    0.1,   -0.0,  999.0,  999.0,  999.0,  999.0,  999.0,  999.0,  999.0,  999.0,  999.0,   -0.3,  999.0,    0.1,    0.2,   -0.2,   -0.2,   -0.1,    0.1,   -0.0,    0.1,   -0.1,    0.1,   -0.1,    0.0,   -0.1,    0.1,   -0.1,   -0.1,    0.0,    0.1,   -0.1,    0.2,    0.3,   -0.1,    0.3,  999.0,    0.3,    0.1,  999.0,  999.0,  999.0,  999.0,  999.0,  999.0,  999.0,  999.0,  999.0,  999.0,  999.0
2014/01/03 08:50,  999.0,    0.3,   -0.1,   -0.1,    0.2,    0.3,    0.7,    2.5,    3.7,    5.3,    5.8,  999.0,  999.0,  999.0,    1.3,  999.0,  999.0,    0.0,    0.1,   -0.1,    0.2,   -0.1,  999.0,  999.0,   -0.4,  999.0,  999.0,    0.1,   -0.0,   -0.0,  999.0,  999.0,  999.0,  999.0,  999.0,  999.0,  999.0,  999.0,  999.0,  999.0,   -0.4,   -0.5,   -0.2,    0.1,    0.1,   -0.0,    0.0,   -0.0,    0.3,    0.2,    0.2,    0.1,    0.1,   -0.1,   -0.2,   -0.2,    0.3,   -0.2,   -0.0,    0.1,   -0.1,   -0.0,    0.0,   -0.1,   -0.0,    0.1,  999.0,  999.0,  999.0,  999.0,  999.0,  999.0,  999.0,  999.0,  999.0,  999.0,  999.0,  999.0,  999.0,  999.0
2014/01/03 09:00,  999.0,    0.3,    0.4,    0.7,    0.1,    0.2,   -0.4,    0.0,    0.6,  999.0,  999.0,  999.0,   -0.3,    1.1,    0.8,    0.7,  999.0,   -1.4,   -0.5,   -0.4,    0.3,   -0.7,  999.0,   -0.1,    0.2,    0.2,    0.3,  999.0,  999.0,   -0.1,    0.0,    0.2,  999.0,  999.0,  999.0,  999.0,  999.0,  999.0,    0.2,   -0.3,   -0.2,  999.0,    0.0,    0.2,    0.1,    0.0,    0.1,    0.0,    0.0,    0.1,    0.1,  999.0,    0.1,   -0.0,   -0.3,   -0.0,    0.1,   -0.1,   -0.1,    0.2,    0.1,    0.1,   -0.1,    0.1,   -0.1,   -0.2,  999.0,    0.2,    0.4,  999.0,  999.0,  999.0,  999.0,  999.0,  999.0,  999.0,  999.0,  999.0,  999.0,  999.0
2014/01/03 09:10,  999.0,    0.2,   -0.2,    0.1,    0.3,   -0.0,    1.3,    1.7,  999.0,  999.0,  999.0,  999.0,    0.9,    1.3,    2.1,    1.6,  999.0,   -3.9,   -0.4,    0.1,    0.1,  999.0,    0.1,    0.1,   -0.2,  999.0,    0.2,    0.2,  999.0,    0.0,   -0.3,    0.1,    0.2,  999.0,  999.0,  999.0,  999.0,  999.0,   -0.1,  999.0,   -0.2,   -0.1,  999.0,   -0.2,   -0.1,   -0.1,    0.1,    0.2,    0.2,    0.3,    0.5,    0.1,    0.0,    0.2,    0.1,    0.2,    0.4,   -0.2,   -0.0,   -0.4,    0.1,    0.2,   -0.1,   -0.3,    0.0,    0.1,  999.0,   -0.1,  999.0,  999.0,  999.0,  999.0,  999.0,  999.0,  999.0,  999.0,  999.0,  999.0,  999.0,  999.0
2014/01/03 09:20,  999.0,    0.9,    0.9,    0.4,    0.3,    0.6,    2.7,    3.1,  999.0,  999.0,  999.0,  999.0,    2.5,    2.2,    2.1,  999.0,   -2.1,   -1.5,   -0.3,    0.0,   -0.0,   -0.1,  999.0,   -0.0,    0.2,  999.0,  999.0,   -0.3,  999.0,    0.0,  999.0,    0.2,  999.0,  999.0,  999.0,  999.0,  999.0,  999.0,  999.0,   -0.0,    0.1,   -0.2,   -0.1,   -0.1,    0.1,    0.1,    0.1,    0.1,    0.2,   -0.1,    0.0,    0.2,    0.2,   -0.1,    0.1,    0.2,    0.2,    0.2,    0.1,    0.1,   -0.1,   -0.0,    0.1,    0.2,   -0.1,   -0.1,    0.1,    0.0,  999.0,  999.0,  999.0,  999.0,  999.0,  999.0,  999.0,  999.0,  999.0,  999.0,  999.0,  999.0
2014/01/03 09:30,  999.0,    1.0,    0.7,    1.1,    1.4,    1.0,    4.6,    4.7,  999.0,  999.0,    9.7,  999.0,  999.0,  999.0,  999.0,    1.5,  999.0,   -2.1,   -2.2,  999.0,    0.1,    0.5,  999.0,  999.0,   -0.1,   -0.2,  999.0,   -0.2,  999.0,  999.0,  999.0,  999.0,  999.0,  999.0,  999.0,  999.0,  999.0,  999.0,  999.0,  999.0,   -0.4,    0.0,   -0.2,    0.2,    0.2,    0.1,    0.1,    0.1,   -0.0,   -0.4,   -0.2,   -0.3,    0.0,    0.0,    0.3,   -0.2,    0.1,    0.1,    0.4,    0.3,    0.1,    0.1,    0.1,   -0.2,   -0.0,    0.1,  999.0,  999.0,  999.0,  999.0,  999.0,  999.0,  999.0,  999.0,  999.0,  999.0,  999.0,  999.0,  999.0,  999.0
2014/01/03 09:40,  999.0,    0.8,    0.4,    0.7,    0.8,    0.1,   -0.7,  999.0,  999.0,  999.0,  999.0,    6.0,    7.0,    6.5,    7.1,  999.0,  999.0,   -1.8,   -1.2,   -0.8,   -0.3,    0.4,    0.7,    0.0,    0.0,    0.2,   -0.2,   -0.3,   -0.1,   -0.4,    0.1,    0.2,    0.1,  999.0,  999.0,  999.0,  999.0,  999.0,    0.3,    0.2,   -0.2,    0.3,   -0.3,   -0.3,    0.0,   -0.2,   -0.1,   -0.2,   -0.0,   -0.2,    0.1,    0.3,    0.0,   -0.0,    0.1,   -0.1,    0.2,   -0.2,   -0.1,   -0.2,    0.1,    0.1,    0.1,    0.0,    0.1,   -0.4,   -0.2,   -0.2,   -0.1,  999.0,  999.0,  999.0,  999.0,  999.0,  999.0,  999.0,  999.0,  999.0,  999.0,  999.0
2014/01/03 09:50,  999.0,    0.5,    0.0,   -0.1,    0.2,    0.1,    0.6,    2.1,  999.0,  999.0,  999.0,    8.7,    6.9,  999.0,  999.0,  999.0,  999.0,  999.0,    0.1,   -0.9,    0.0,  999.0,  999.0,    0.2,    0.3,    0.5,   -0.1,   -0.2,   -0.1,  999.0,  999.0,   -0.1,   -0.1,    0.0,  999.0,  999.0,  999.0,  999.0,  999.0,    0.1,   -0.4,   -0.7,   -0.2,    0.1,    0.2,   -0.2,   -0.2,   -0.1,    0.0,  999.0,   -0.0,    0.1,    0.1,   -0.0,   -0.3,   -0.3,   -0.1,    0.1,   -0.0,   -0.0,    0.0,    0.1,   -0.1,    0.4,   -0.2,   -0.1,  999.0,   -0.1,    0.1,  999.0,  999.0,  999.0,  999.0,  999.0,  999.0,  999.0,  999.0,  999.0,  999.0,  999.0
2014/01/03 10:00,  999.0,    0.4,    0.5,    0.4,    0.1,    0.6,    1.0,    2.3,    3.4,    5.8,   10.0,    6.7,    5.9,    6.4,    7.1,    4.2,    1.5,    3.1,    0.1,   -0.1,    0.4,  999.0,   -0.1,    0.4,   -0.0,    0.1,   -0.1,   -0.2,    0.2,   -0.2,   -0.0,    0.1,    0.1,   -0.2,   -0.1,  999.0,  999.0,    0.0,    0.3,    0.2,   -0.4,   -0.3,    0.1,    0.1,   -0.1,   -0.2,    0.0,    0.1,    0.0,    0.1,   -0.1,    0.0,   -0.2,   -0.0,    0.0,   -0.2,    0.1,    0.1,   -0.0,    0.0,   -0.1,    0.1,    0.2,   -0.0,   -0.0,    0.2,    0.3,    0.1,  999.0,  999.0,  999.0,  999.0,  999.0,  999.0,  999.0,  999.0,  999.0,  999.0,  999.0,  999.0
2014/01/03 10:10,  999.0,   -0.3,    0.3,    0.3,    0.1,    0.5,    1.0,    1.5,    1.6,    4.8,  999.0,  999.0,  999.0,  999.0,    4.4,    0.9,    0.2,    0.1,   -0.0,   -0.1,   -0.4,    0.1,    0.1,   -0.1,    0.3,    0.0,   -0.0,    0.0,   -0.1,   -0.0,    0.2,    0.1,    0.1,  999.0,    0.2,  999.0,    0.3,  999.0,  999.0,    0.2,   -0.2,   -0.2,   -0.2,   -0.0,   -0.1,    0.3,    0.8,    0.2,    0.4,   -0.3,   -0.1,   -0.2,   -0.2,    0.0,    0.1,   -0.1,   -0.0,   -0.1,    0.0,   -0.0,   -0.0,    0.1,    0.1,   -0.0,   -0.1,   -0.2,  999.0,  999.0,   -0.1,  999.0,  999.0,  999.0,  999.0,  999.0,  999.0,  999.0,  999.0,  999.0,  999.0,  999.0
2014/01/03 10:20,  999.0,    0.1,    1.0,    0.6,    0.4,    0.7,    1.1,    2.5,    5.0,    6.1,    8.9,    8.7,    7.1,    5.6,  999.0,    1.4,    2.1,    1.1,    0.5,    0.3,   -0.2,   -1.3,   -1.7,  999.0,    0.3,    0.0,   -0.1,    0.3,   -0.0,   -0.3,    0.2,   -0.2,    0.2,    0.2,    0.0,  999.0,  999.0,   -0.1,   -0.5,   -0.3,   -0.4,   -0.3,  999.0,    0.3,   -0.1,   -0.1,   -0.4,    0.1,  999.0,    0.2,    0.1,   -0.2,    0.2,    0.3,   -0.1,    0.0,   -0.1,   -0.1,   -0.2,    0.0,    0.0,    0.1,   -0.1,   -0.3,   -0.1,   -0.3,  999.0,  999.0,   -0.2,  999.0,  999.0,  999.0,  999.0,  999.0,  999.0,  999.0,  999.0,  999.0,  999.0,  999.0
2014/01/03 10:30,  999.0,    0.1,    0.3,    0.4,    0.5,    0.3,    1.4,    3.2,    5.3,    8.1,    9.2,    9.3,  999.0,  999.0,  999.0,  999.0,    0.4,    0.7,   -0.0,    0.1,   -0.1,   -0.2,    0.7,   -0.2,    0.0,   -0.1,   -0.3,    0.1,   -0.1,    0.3,   -0.1,   -0.1,   -0.1,   -0.4,   -0.1,   -0.2,  999.0,   -0.1,    0.1,   -0.2,   -0.4,  999.0,  999.0,    0.1,    0.1,   -0.2,    0.3,   -0.0,   -0.5,   -0.1,   -0.2,    0.1,   -0.3,   -0.2,   -0.0,   -0.2,   -0.2,   -0.0,   -0.1,    0.1,    0.0,    0.0,   -0.0,    0.1,    0.1,    0.0,   -0.1,    0.1,   -0.2,  999.0,  999.0,  999.0,  999.0,  999.0,  999.0,  999.0,  999.0,  999.0,  999.0,  999.0
2014/01/03 10:40,  999.0,    0.0,    0.2,    0.2,    0.0,    0.3,    0.9,   -0.0,    2.2,    5.4,    7.1,    8.5,    7.8,    6.5,    3.7,    1.7,    1.2,    0.4,    0.3,   -0.1,   -0.5,   -0.2,    0.4,    0.5,    0.2,    0.0,    0.0,    0.0,   -0.1,   -0.2,    0.0,    0.2,    0.3,    0.1,  999.0,  999.0,  999.0,  999.0,  999.0,    0.1,   -0.7,   -0.6,  999.0,   -0.1,    0.1,   -0.1,    0.0,    0.1,  999.0,   -0.2,  999.0,   -0.0,    0.1,    0.1,   -0.1,    0.1,   -0.3,   -0.1,    0.0,    0.1,   -0.2,   -0.1,   -0.1,   -0.0,    0.1,    0.1,  999.0,  999.0,   -0.1,   -0.0,  999.0,    0.1,  999.0,  999.0,  999.0,  999.0,  999.0,  999.0,  999.0,  999.0
2014/01/03 10:50,  999.0,   -0.2,    0.3,   -0.1,    0.4,    0.5,    0.8,    1.1,    3.2,    5.6,    7.8,    7.9,    6.8,    8.1,    6.9,    3.6,    1.4,    0.1,    0.1,    0.1,    0.1,   -0.0,  999.0,   -0.1,    0.2,    0.3,    0.3,    0.1,    0.2,    0.2,  999.0,    0.2,    0.1,  999.0,    0.1,  999.0,  999.0,  999.0,  999.0,    0.3,    0.2,  999.0,    0.4,    0.1,    0.1,    0.0,   -0.1,  999.0,  999.0,  999.0,    0.3,  999.0,   -0.1,   -0.1,   -0.4,   -0.2,    0.1,   -0.5,   -0.2,   -0.2,   -0.3,    0.0,   -0.0,   -0.4,  999.0,  999.0,  999.0,  999.0,  999.0,  999.0,  999.0,  999.0,  999.0,  999.0,  999.0,  999.0,  999.0,  999.0,  999.0,  999.0
2014/01/03 11:00,  999.0,   -0.1,   -0.6,    0.3,    0.4,    0.3,    0.4,    0.3,    2.1,    3.1,    2.4,    2.2,    4.2,    5.8,    7.1,    5.0,    3.4,   -0.6,   -0.1,    0.1,   -0.4,    0.7,   -0.4,   -0.4,   -0.1,   -0.1,  999.0,   -0.2,  999.0,   -0.1,  999.0,  999.0,  999.0,  999.0,  999.0,  999.0,  999.0,  999.0,  999.0,  999.0,   -0.6,  999.0,   -0.2,   -0.2,   -0.0,    0.2,   -0.1,  999.0,  999.0,  999.0,  999.0,  999.0,  999.0,  999.0,  999.0,  999.0,    0.0,    0.2,   -0.2,    0.2,    0.2,    0.1,  999.0,   -0.1,  999.0,  999.0,  999.0,  999.0,  999.0,  999.0,  999.0,  999.0,  999.0,  999.0,  999.0,  999.0,  999.0,  999.0,  999.0,  999.0
2014/01/03 11:10,  999.0,    0.1,   -0.6,    0.1,    0.1,    0.1,    0.3,    0.4,    0.7,    1.6,    3.0,    4.6,    5.7,    5.0,    1.7,    1.7,    0.6,    0.4,    0.3,    0.1,    0.3,    0.3,   -0.2,   -0.1,   -0.2,    0.2,   -0.1,  999.0,    0.2,    0.1,  999.0,  999.0,  999.0,  999.0,  999.0,  999.0,  999.0,  999.0,  999.0,  999.0,   -0.4,  999.0,  999.0,  999.0,  999.0,   -0.1,  999.0,   -0.0,  999.0,  999.0,  999.0,  999.0,  999.0,  999.0,  999.0,   -0.5,  999.0,  999.0,   -0.3,  999.0,   -0.1,  999.0,  999.0,    0.1,  999.0,  999.0,  999.0,  999.0,  999.0,  999.0,  999.0,  999.0,  999.0,  999.0,  999.0,  999.0,  999.0,  999.0,  999.0,  999.0
2014/01/03 11:20,  999.0,    0.0,   -0.2,   -0.1,    0.2,    0.2,    0.1,    0.2,    0.2,    1.4,    4.7,    6.0,    6.1,    4.5,    4.3,    4.5,    1.7,    1.5,    0.6,   -0.2,    0.4,    0.1,    0.0,    0.0,   -0.0,    0.1,    0.5,    0.0,   -0.1,    0.1,  999.0,    0.2,  999.0,  999.0,  999.0,  999.0,  999.0,  999.0,  999.0,  999.0,  999.0,  999.0,  999.0,   -0.0,  999.0,  999.0,  999.0,  999.0,  999.0,  999.0,  999.0,  999.0,    0.3,   -0.2,  999.0,  999.0,  999.0,  999.0,    0.5,   -0.2,    0.0,    0.2,   -0.1,   -0.1,   -0.0,  999.0,    0.3,  999.0,   -0.2,    0.2,  999.0,  999.0,   -0.1,  999.0,  999.0,  999.0,  999.0,  999.0,  999.0,  999.0
2014/01/03 11:30,  999.0,    0.0,    0.3,    0.1,    0.0,    0.2,    0.2,    0.1,    0.2,    0.8,  999.0,  999.0,  999.0,  999.0,  999.0,    3.1,    1.7,    1.5,    0.7,    0.2,   -0.1,   -0.4,    0.0,   -0.5,   -0.0,    0.1,    0.2,    0.3,   -0.1,    0.1,    0.1,   -0.1,  999.0,  999.0,  999.0,  999.0,  999.0,  999.0,  999.0,  999.0,  999.0,  999.0,    0.2,  999.0,  999.0,  999.0,  999.0,  999.0,  999.0,  999.0,    0.2,    0.0,    0.1,   -0.2,    0.1,    0.1,   -0.1,   -0.2,   -0.2,   -0.2,   -0.1,    0.1,   -0.0,    0.0,    0.2,    0.1,    0.2,    0.1,    0.1,    0.2,  999.0,  999.0,  999.0,  999.0,  999.0,  999.0,  999.0,  999.0,  999.0,  999.0
2014/01/03 11:40,  999.0,    0.4,   -0.2,   -0.1,   -0.0,   -0.1,   -0.2,   -0.2,   -0.0,   -0.1,   -0.1,    0.2,  999.0,  999.0,    3.5,    1.2,    0.4,   -0.1,   -0.3,    0.1,   -0.1,   -0.1,   -0.1,   -0.0,   -0.2,    0.1,   -0.2,   -0.0,    0.1,    0.1,   -0.0,    0.1,    0.2,    0.1,    0.1,  999.0,  999.0,  999.0,  999.0,    0.2,    0.2,  999.0,  999.0,  999.0,    0.1,    0.0,   -0.2,    0.1,   -0.2,   -0.3,   -0.3,   -0.1,    0.1,   -0.1,    0.0,   -0.2,    0.1,   -0.0,   -0.0,   -0.2,   -0.1,   -0.0,   -0.1,    0.0,   -0.1,   -0.0,    0.1,   -0.1,    0.3,    0.1,    0.1,   -0.2,  999.0,  999.0,  999.0,  999.0,  999.0,  999.0,  999.0,  999.0
2014/01/03 11:50,  999.0,   -0.1,   -0.0,   -0.1,   -0.0,    0.0,   -0.1,    0.0,   -0.2,   -0.5,   -0.7,  999.0,   -2.6,  999.0,  999.0,  999.0,   -4.0,   -3.4,   -2.2,   -0.9,   -0.0,   -0.0,   -0.0,   -0.3,   -0.1,    0.2,   -0.0,   -0.1,   -0.2,   -0.0,   -0.0,    0.1,    0.0,    0.1,    0.1,   -0.2,   -0.0,   -0.1,   -0.2,    0.1,   -0.1,   -0.1,    0.1,    0.0,   -0.2,   -0.0,    0.0,    0.1,   -0.1,    0.1,   -0.1,    0.0,    0.1,   -0.2,   -0.1,    0.1,    0.0,    0.1,   -0.0,    0.1,    0.0,   -0.0,   -0.1,    0.1,    0.1,    0.1,   -0.1,    0.0,    0.1,   -0.0,    0.2,  999.0,   -0.1,  999.0,  999.0,  999.0,  999.0,  999.0,  999.0,  999.0
2014/01/03 12:00,  999.0,   -0.1,    0.1,   -0.1,   -0.1,   -0.1,    0.0,    0.2,    0.1,   -0.7,  999.0,    0.5,  999.0,  999.0,  999.0,  999.0,   -3.6,   -2.9,   -2.4,   -0.4,   -0.2,   -0.6,    0.0,    0.1,    0.0,    0.1,   -0.0,   -0.1,   -0.1,    0.0,   -0.1,    0.1,   -0.0,    0.0,   -0.0,    0.2,  999.0,   -0.1,   -0.0,    0.2,   -0.1,   -0.3,    0.0,    0.2,    0.1,    0.2,    0.1,    0.1,    0.0,    0.2,    0.0,   -0.1,   -0.2,    0.2,    0.0,    0.2,    0.2,    0.1,    0.0,   -0.1,   -0.0,   -0.1,   -0.0,   -0.0,   -0.2,    0.1,   -0.0,  999.0,   -0.2,    0.1,   -0.1,    0.0,    0.1,  999.0,  999.0,  999.0,  999.0,  999.0,  999.0,  999.0
2014/01/03 12:10,  999.0,    0.0,    0.3,    0.0,   -0.2,   -0.1,    0.3,    0.1,    0.1,    0.1,    0.6,   -1.6,   -2.4,  999.0,  999.0,  999.0,   -1.1,   -0.7,   -0.2,   -0.2,   -0.0,   -0.2,    0.0,    0.1,   -0.1,   -0.2,   -0.4,    0.0,   -0.1,   -0.1,   -0.0,    0.3,    0.0,   -0.2,  999.0,   -0.2,   -0.1,   -0.0,    0.2,   -0.0,   -0.2,   -0.4,   -0.0,    0.1,    0.0,   -0.0,   -0.1,   -0.1,  999.0,    0.3,   -0.2,   -0.2,    0.1,    0.1,    0.1,   -0.0,   -0.2,   -0.0,    0.2,   -0.0,   -0.1,   -0.0,    0.0,    0.0,    0.0,   -0.0,   -0.0,    0.2,  999.0,   -0.1,    0.7,  999.0,   -0.1,  999.0,  999.0,  999.0,  999.0,  999.0,  999.0,  999.0
2014/01/03 12:20,  999.0,   -0.1,    0.1,    0.0,   -0.0,    0.1,   -0.1,    0.0,    0.2,    0.0,   -0.3,   -0.3,  999.0,  999.0,  999.0,  999.0,   -2.4,    0.1,    0.0,    0.1,   -0.0,    0.0,   -0.0,   -0.1,    0.0,    0.0,   -0.2,    0.0,    0.0,   -0.0,   -0.2,    0.1,   -0.1,   -0.1,  999.0,   -0.1,  999.0,    0.1,    0.1,    0.4,    0.3,    0.1,   -0.1,    0.1,    0.2,    0.2,   -0.1,  999.0,    0.1,   -0.0,   -0.1,   -0.1,   -0.1,   -0.0,   -0.1,   -0.1,    0.2,   -0.0,   -0.1,    0.0,    0.1,    0.0,   -0.1,    0.0,   -0.2,   -0.1,   -0.1,   -0.1,   -0.1,   -0.0,  999.0,  999.0,    0.5,  999.0,  999.0,  999.0,  999.0,  999.0,  999.0,  999.0
2014/01/03 12:30,  999.0,   -0.1,    0.1,    0.3,    0.0,    0.1,    0.4,    0.2,    0.3,    0.2,  999.0,  999.0,  999.0,  999.0,  999.0,   -1.3,   -0.9,   -0.4,    0.0,    0.2,    0.3,   -0.0,    0.4,    0.1,    0.3,    0.0,    0.2,   -0.1,   -0.1,   -0.1,    0.1,    0.3,    0.1,   -0.2,  999.0,  999.0,  999.0,  999.0,    0.3,   -0.1,    0.0,   -0.6,  999.0,   -0.0,  999.0,   -0.2,    0.2,    0.1,  999.0,   -0.0,    0.2,  999.0,    0.0,   -0.1,   -0.2,   -0.0,    0.2,    0.2,    0.2,    0.0,   -0.4,   -0.2,   -0.0,   -0.0,   -0.1,   -0.1,    0.4,  999.0,    0.0,   -0.1,  999.0,    0.1,   -0.1,  999.0,  999.0,  999.0,  999.0,  999.0,  999.0,  999.0
2014/01/03 12:40,  999.0,   -0.0,    0.1,    0.0,    0.2,    0.2,    0.5,    0.1,    0.2,    1.1,    2.1,    2.6,    1.0,    3.1,  999.0,   -0.6,   -0.7,    0.0,    0.1,    0.1,   -0.0,   -0.0,    0.6,   -0.1,   -0.2,    0.1,    0.1,   -0.1,    0.2,    0.1,    0.1,    0.1,   -0.1,   -0.1,  999.0,   -0.1,  999.0,   -0.1,  999.0,  999.0,   -0.0,   -0.0,    0.1,    0.4,    0.1,   -0.1,   -0.3,    0.2,   -0.1,    0.1,    0.2,   -0.1,    0.0,    0.1,   -0.1,   -0.0,    0.1,   -0.3,   -0.0,    0.1,   -0.2,   -0.2,   -0.4,   -0.2,   -0.0,  999.0,  999.0,  999.0,    0.0,    0.2,  999.0,    0.5,   -0.1,   -0.1,  999.0,  999.0,  999.0,  999.0,  999.0,  999.0
2014/01/03 12:50,  999.0,  999.0,    0.0,    0.2,    0.2,    0.1,    0.2,    0.0,    0.3,    0.5,    1.1,    0.6,    1.6,  999.0,    1.0,   -0.9,   -0.3,    0.3,    0.3,    0.2,    0.3,   -0.0,  999.0,   -0.1,    0.8,    0.2,    0.1,    0.2,    0.0,   -0.1,   -0.2,   -0.1,   -0.1,    0.0,   -0.2,   -0.0,   -0.0,   -0.3,   -0.4,   -0.1,  999.0,  999.0,   -0.2,   -0.1,   -0.2,    0.2,   -0.2,    0.2,    0.2,   -0.1,   -0.3,   -0.1,    0.2,   -0.1,   -0.0,    0.1,   -0.0,    0.2,   -0.3,    0.1,   -0.2,    0.3,    0.2,   -0.0,    0.3,   -0.5,  999.0,    0.2,    0.1,   -0.0,    0.1,   -0.0,  999.0,   -0.1,  999.0,  999.0,  999.0,  999.0,  999.0,  999.0
2014/01/03 13:00,  999.0,  999.0,   -0.1,   -0.0,   -0.1,    0.2,   -0.1,   -0.2,   -0.2,    0.2,    0.6,    1.0,    2.0,    1.3,    2.6,    0.8,    1.0,    0.9,    0.2,   -0.0,    0.1,    0.2,    0.0,    0.1,    0.2,    0.3,   -0.2,   -0.0,   -0.1,    0.2,   -0.3,   -0.0,    0.0,  999.0,    0.1,    0.3,    0.4,  999.0,    0.4,   -0.0,    0.2,   -0.3,   -0.2,    0.3,    0.2,    0.2,   -0.1,   -0.2,   -0.0,   -0.2,   -0.3,   -0.8,   -1.4,   -1.4,   -1.6,   -0.9,   -1.0,   -1.8,  999.0,  999.0,    0.2,  999.0,   -0.1,   -0.1,  999.0,  999.0,   -0.6,   -0.0,   -0.1,    0.1,  999.0,    0.0,    0.1,  999.0,  999.0,  999.0,  999.0,  999.0,  999.0,  999.0
2014/01/03 13:10,  999.0,   -0.0,   -0.1,    0.0,   -0.0,   -0.2,   -0.4,   -0.6,   -1.0,    0.3,    1.9,  999.0,    1.1,    1.7,    0.7,    0.7,    1.0,    0.5,    1.0,    0.3,    0.1,    0.1,    0.1,   -0.0,   -0.0,    0.1,    0.2,    0.1,    0.3,   -0.0,   -0.1,    0.2,    0.1,  999.0,   -0.3,  999.0,  999.0,    0.2,  999.0,   -0.4,  999.0,   -0.3,  999.0,   -0.1,   -0.0,    0.4,    0.4,    0.1,    0.0,   -0.1,  999.0,   -0.2,   -0.4,   -0.3,   -0.1,   -0.2,   -0.2,   -0.2,   -0.4,   -0.8,  999.0,   -0.1,  999.0,   -0.0,   -0.2,   -0.7,   -0.2,  999.0,   -0.0,  999.0,  999.0,   -0.0,    0.3,    0.3,  999.0,  999.0,  999.0,  999.0,  999.0,  999.0
2014/01/03 13:20,  999.0,    0.0,   -0.1,    0.0,    0.0,    0.1,   -0.2,   -0.0,    0.3,    0.2,    0.8,    1.5,    1.7,    1.7,    0.9,    0.8,    0.4,    0.4,    0.4,    0.2,    0.1,    0.1,    0.1,    0.1,    0.2,    0.3,    0.1,    0.1,    0.1,    0.1,   -0.1,    0.3,  999.0,    0.0,   -0.1,  999.0,    0.2,   -0.0,   -0.1,   -0.4,  999.0,   -0.1,   -0.1,  999.0,    0.0,   -0.3,    0.0,    0.1,   -0.6,   -0.0,  999.0,   -0.6,   -0.3,   -0.4,  999.0,    0.0,  999.0,   -0.2,  999.0,   -0.2,   -0.2,    0.0,   -0.1,    0.3,    0.0,    0.2,   -0.1,    0.3,    0.2,  999.0,    0.2,   -0.1,    0.1,   -0.2,  999.0,  999.0,  999.0,  999.0,  999.0,  999.0
2014/01/03 13:30,  999.0,   -0.0,   -0.2,   -0.1,   -0.1,   -0.0,    0.2,    0.6,    0.5,    0.8,    2.0,    3.2,    2.9,    1.9,    1.3,    1.1,    1.5,    0.9,    0.4,    0.2,    0.1,   -0.1,    0.1,    0.0,    0.1,    0.1,    0.0,    0.0,   -0.1,   -0.2,    0.1,    0.3,   -0.0,    0.1,    0.1,  999.0,   -0.2,  999.0,  999.0,   -0.4,  999.0,   -0.2,   -0.1,    0.1,   -0.1,   -0.3,   -0.3,  999.0,    0.1,  999.0,   -0.4,  999.0,  999.0,   -0.2,  999.0,   -0.7,   -1.4,   -1.1,   -0.4,  999.0,   -0.1,    0.1,    0.2,  999.0,    0.2,    0.0,  999.0,   -0.1,  999.0,   -0.0,  999.0,  999.0,   -0.2,  999.0,  999.0,  999.0,  999.0,  999.0,  999.0,  999.0
2014/01/03 13:40,  999.0,    0.0,   -0.1,    0.0,    0.1,    0.1,  999.0,    0.3,    0.8,    0.9,    0.6,    1.4,    1.2,    1.2,    0.8,    1.1,    2.2,    0.8,   -0.0,   -0.0,   -0.1,    0.0,    0.2,    0.2,    0.1,   -0.0,    0.3,    0.1,   -0.1,   -0.1,    0.1,   -0.1,   -0.2,   -0.0,   -0.0,  999.0,    0.3,  999.0,  999.0,  999.0,   -0.1,   -0.3,  999.0,  999.0,    0.4,   -0.1,   -0.2,  999.0,   -0.3,  999.0,   -0.7,   -0.4,   -1.3,  999.0,   -1.0,   -0.5,   -0.5,   -0.3,  999.0,  999.0,   -0.0,   -0.1,   -0.0,   -0.4,    0.0,  999.0,  999.0,  999.0,  999.0,  999.0,    0.2,  999.0,    0.1,    0.0,  999.0,  999.0,  999.0,  999.0,  999.0,  999.0
2014/01/03 13:50,  999.0,   -0.0,   -0.0,    0.0,    0.1,    0.4,    0.0,   -0.0,    0.0,    0.5,    1.1,   -0.0,   -0.1,    0.2,    0.1,    0.1,   -0.0,   -0.1,   -0.1,   -0.0,   -0.1,    0.0,    0.1,   -0.1,   -0.1,    0.2,    0.2,    0.0,   -0.1,    0.0,   -0.1,   -0.1,   -0.1,   -0.1,  999.0,   -0.1,   -0.0,    0.1,  999.0,  999.0,   -0.5,  999.0,  999.0,    0.0,   -0.0,   -0.3,   -0.1,   -0.3,   -0.2,    0.1,   -0.2,   -0.4,    0.2,   -0.1,   -0.2,  999.0,   -0.3,  999.0,  999.0,    0.1,    0.2,    0.1,   -0.2,   -0.2,   -0.1,  999.0,    0.1,   -0.0,    0.4,  999.0,  999.0,  999.0,   -0.5,   -0.3,  999.0,  999.0,  999.0,  999.0,  999.0,  999.0
2014/01/03 14:00,  999.0,  999.0,   -0.0,    0.2,    0.3,    0.1,    0.3,    0.6,   -0.0,   -0.0,   -0.0,    0.3,    0.1,   -0.2,   -0.2,   -0.2,   -0.2,    0.1,   -0.2,   -0.1,   -0.2,   -0.0,   -0.1,    0.0,    0.0,    0.0,   -0.1,   -0.0,    0.0,   -0.1,   -0.0,    0.0,    0.1,   -0.2,   -0.0,  999.0,  999.0,   -0.6,  999.0,   -0.3,   -0.7,   -0.1,   -0.2,   -0.0,    0.1,   -0.5,   -0.0,  999.0,   -0.0,  999.0,   -0.4,  999.0,   -1.3,   -1.4,   -1.8,   -1.7,   -1.9,   -1.2,   -0.3,   -0.1,   -0.1,    0.1,    0.2,    0.2,   -0.0,  999.0,  999.0,  999.0,   -0.3,  999.0,  999.0,  999.0,    0.1,   -0.0,  999.0,  999.0,  999.0,  999.0,  999.0,  999.0
2014/01/03 14:10,  999.0,  999.0,   -0.1,    0.1,    0.5,    0.7,    0.6,    0.6,    0.3,   -0.1,    0.2,   -0.5,   -0.3,   -0.2,   -0.4,   -0.5,   -0.2,   -0.1,   -0.1,   -0.0,   -0.1,    0.3,    0.1,    0.0,   -0.1,   -0.1,   -0.1,   -0.1,    0.2,    0.2,   -0.0,   -0.1,    0.1,    0.1,  999.0,   -0.1,   -0.1,  999.0,  999.0,  999.0,   -0.1,   -0.1,   -0.3,   -0.1,   -0.8,    0.1,   -0.5,  999.0,   -0.3,    0.2,   -0.3,   -0.2,   -0.9,   -0.9,   -0.5,   -0.9,   -0.6,   -0.6,   -0.3,   -0.0,    0.1,   -0.1,   -0.1,   -0.2,   -0.1,   -0.0,  999.0,  999.0,   -0.2,  999.0,   -0.1,   -0.0,   -0.1,  999.0,  999.0,  999.0,  999.0,  999.0,  999.0,  999.0
2014/01/03 14:20,  999.0,   -0.0,    0.1,    0.1,    0.1,    0.2,   -0.2,   -0.6,   -0.2,   -0.5,   -0.5,   -0.2,   -0.2,   -0.2,   -0.1,   -0.2,   -0.2,   -0.0,    0.0,   -0.1,   -0.1,   -0.0,    0.0,   -0.0,   -0.1,    0.1,    0.2,   -0.0,    0.0,   -0.0,   -0.0,   -0.0,   -0.1,    0.0,   -0.2,  999.0,    0.0,    0.0,    0.0,   -0.1,   -0.2,   -0.1,   -0.1,  999.0,   -0.1,   -0.1,    0.0,   -0.0,    0.2,    0.1,   -0.1,   -0.4,   -0.1,   -1.2,   -0.5,   -0.2,    0.0,   -0.1,    0.1,  999.0,   -0.1,   -0.1,   -0.1,   -0.1,   -0.1,    0.3,  999.0,   -0.7,  999.0,   -0.1,   -0.2,   -0.3,    0.3,  999.0,  999.0,  999.0,  999.0,  999.0,  999.0,  999.0
2014/01/03 14:30,  999.0,  999.0,    0.0,    0.2,    0.3,   -0.2,   -0.3,   -0.4,    0.2,   -0.1,   -0.4,   -0.3,   -0.2,   -0.2,   -0.2,   -0.2,   -0.1,   -0.2,   -0.2,   -0.1,    0.0,   -0.1,   -0.1,   -0.1,    0.0,    0.0,    0.1,    0.0,   -0.0,    0.0,    0.1,   -0.0,    0.2,   -0.1,   -0.1,    0.1,   -0.2,   -0.3,    0.2,   -0.1,   -0.2,   -0.1,    0.1,    0.0,   -0.1,   -0.2,   -0.2,    0.1,    0.0,  999.0,   -0.1,   -0.4,   -0.3,   -0.4,   -0.2,   -0.1,   -0.1,   -0.1,   -0.3,   -0.4,   -0.1,   -0.3,   -0.4,   -0.0,   -0.2,   -0.1,    0.1,    0.1,  999.0,    0.1,   -0.1,   -0.2,   -0.3,    0.2,  999.0,  999.0,  999.0,  999.0,  999.0,  999.0
2014/01/03 14:40,  999.0,   -0.0,   -0.2,    0.1,    0.0,   -0.0,   -0.0,   -0.0,    0.1,    0.3,   -0.3,   -0.2,   -0.1,   -0.1,   -0.3,   -0.3,   -0.1,   -0.0,   -0.2,   -0.1,   -0.0,    0.0,    0.0,    0.0,    0.1,   -0.0,    0.0,   -0.1,   -0.1,    0.1,    0.1,    0.2,    0.0,   -0.1,   -0.3,    0.0,   -0.1,   -0.2,  999.0,    0.1,   -0.4,   -0.3,    0.1,   -0.1,   -0.2,    0.0,   -0.3,   -0.3,    0.0,   -0.2,   -0.4,   -0.6,   -0.2,   -0.5,   -0.5,   -0.3,   -0.1,   -0.3,   -0.4,   -0.3,    0.2,   -0.1,   -0.2,   -0.0,   -0.2,    0.2,    0.3,    0.1,   -0.3,   -0.0,   -0.1,   -0.2,    0.5,    0.1,   -0.2,  999.0,  999.0,  999.0,  999.0,  999.0
2014/01/03 14:50,  999.0,  999.0,   -0.0,    0.2,    0.1,    0.1,   -0.0,   -0.1,    0.0,    0.2,    0.2,    0.1,   -0.0,    0.0,    0.0,   -0.1,   -0.2,   -0.2,   -0.4,   -0.4,   -0.4,   -0.1,    0.0,    0.1,   -0.1,   -0.1,   -0.1,    0.0,   -0.2,    0.2,    0.1,   -0.1,   -0.1,   -0.1,  999.0,    0.3,   -0.1,   -0.2,    0.1,   -0.2,   -0.1,    0.0,   -0.0,   -0.1,   -0.2,   -0.4,    0.1,   -0.2,    0.2,    0.1,    0.0,   -0.2,   -0.0,    0.1,   -0.1,   -0.0,    0.1,    0.0,   -0.1,   -0.1,   -0.0,   -0.3,   -0.2,   -0.1,   -0.1,    0.1,    0.2,    0.2,    0.4,   -0.0,  999.0,  999.0,  999.0,    0.3,  999.0,  999.0,  999.0,  999.0,  999.0,  999.0
2014/01/03 15:00,  999.0,  999.0,   -0.1,   -0.0,   -0.2,    0.1,   -0.0,    0.0,   -0.1,   -0.1,    0.2,    0.1,    0.0,   -0.0,   -0.0,   -0.1,    0.0,   -0.0,   -0.1,   -0.2,   -0.2,   -0.0,    0.2,    0.0,    0.2,   -0.0,   -0.0,   -0.1,   -0.1,   -0.0,    0.0,    0.0,   -0.0,   -0.1,    0.1,    0.0,  999.0,    0.3,    0.1,  999.0,   -0.3,   -0.0,   -0.1,    0.1,   -0.3,   -0.4,   -0.3,   -0.0,    0.0,   -0.0,    0.1,   -0.2,   -0.1,   -0.1,    0.0,    0.2,    0.1,    0.1,   -0.1,   -0.1,   -0.0,    0.1,    0.0,    0.2,    0.2,    0.1,    0.1,    0.1,   -0.2,   -0.1,    0.1,    0.1,  999.0,  999.0,    0.3,  999.0,  999.0,  999.0,  999.0,  999.0
2014/01/03 15:10,  999.0,  999.0,   -0.0,   -0.0,    0.0,    0.0,   -0.0,   -0.1,   -0.1,   -0.0,    0.1,    0.0,    0.0,    0.1,    0.2,    0.1,    0.1,   -0.1,   -0.2,    0.0,   -0.1,   -0.2,    0.0,   -0.3,   -0.3,   -0.2,   -0.0,   -0.0,    0.0,    0.2,   -0.0,   -0.1,    0.1,   -0.2,    0.0,    0.3,    0.3,    0.4,    0.2,    0.2,   -0.1,   -0.5,   -0.2,   -0.1,   -0.2,   -0.2,   -0.1,   -0.1,    0.1,   -0.2,   -0.4,   -0.1,   -0.2,   -0.0,   -0.1,   -0.0,   -0.1,   -0.2,   -0.0,   -0.1,   -0.2,   -0.2,   -0.1,   -0.1,    0.0,   -0.0,    0.2,   -0.0,    0.1,    0.1,  999.0,    0.2,   -0.2,   -0.1,  999.0,  999.0,  999.0,  999.0,  999.0,  999.0
2014/01/03 15:20,  999.0,  999.0,   -0.1,    0.0,   -0.1,  999.0,   -0.1,   -0.1,    0.0,    0.0,    0.2,    0.4,    0.4,    0.3,    0.2,    0.3,    0.2,    0.1,   -0.2,   -0.0,   -0.0,   -0.1,   -0.4,   -0.4,   -0.3,    0.0,   -0.1,    0.1,    0.2,    0.0,   -0.1,   -0.1,    0.1,    0.2,   -0.0,   -0.0,    0.2,  999.0,   -0.1,   -0.1,   -0.4,   -0.2,   -0.1,   -0.2,   -0.2,   -0.2,   -0.1,    0.1,    0.1,    0.0,    0.1,   -0.1,   -0.1,    0.1,    0.0,    0.1,   -0.2,    0.1,   -0.0,   -0.0,   -0.2,    0.1,    0.0,    0.1,   -0.2,    0.1,    0.2,    0.0,    0.1,    0.2,    0.1,  999.0,    0.1,    0.2,  999.0,  999.0,  999.0,  999.0,  999.0,  999.0
2014/01/03 15:30,  999.0,  999.0,    0.0,   -0.1,   -0.1,    0.0,  999.0,  999.0,   -0.1,   -0.1,    0.0,    0.1,    0.2,    0.5,    0.4,    0.6,    0.2,    0.4,    0.4,    0.4,    0.1,    0.7,    0.5,   -0.4,   -0.2,    0.1,   -0.5,    0.1,    0.3,   -0.0,    0.3,    0.2,   -0.0,    0.1,  999.0,  999.0,   -0.1,    0.0,   -0.1,   -0.1,   -0.2,   -0.1,   -0.1,   -0.2,    0.0,    0.1,    0.1,    0.3,    0.0,    0.1,    0.0,    0.0,    0.0,    0.2,    0.0,    0.2,    0.1,    0.2,    0.0,  999.0,    0.2,    0.1,    0.0,   -0.1,    0.1,    0.1,    0.2,   -0.3,    0.0,  999.0,   -0.1,  999.0,  999.0,  999.0,  999.0,  999.0,  999.0,  999.0,  999.0,  999.0
2014/01/03 15:40,  999.0,  999.0,   -0.0,    0.0,   -0.0,    0.0,   -0.2,   -0.2,   -0.1,   -0.0,   -0.3,   -0.2,    0.2,    0.6,    0.5,    0.5,    0.8,    1.3,    0.5,    0.2,    0.2,    0.1,    0.2,    0.0,   -0.2,    0.4,  999.0,   -0.1,   -0.0,   -0.3,    0.1,    0.2,    0.5,  999.0,    0.1,  999.0,  999.0,   -0.4,  999.0,   -0.2,   -0.3,   -0.5,   -0.0,   -0.2,    0.1,    0.1,    0.1,   -0.1,   -0.0,    0.2,    0.1,   -0.0,    0.2,    0.0,   -0.1,    0.2,   -0.1,    0.0,   -0.0,   -0.2,    0.2,   -0.0,    0.0,   -0.0,    0.1,   -0.1,  999.0,  999.0,  999.0,  999.0,  999.0,  999.0,  999.0,  999.0,  999.0,  999.0,  999.0,  999.0,  999.0,  999.0
2014/01/03 15:50,  999.0,  999.0,   -0.2,   -0.0,  999.0,  999.0,  999.0,  999.0,  999.0,   -0.1,    0.1,    0.5,    0.3,    0.4,    0.7,    0.6,    1.3,    0.7,    0.1,    0.0,    0.2,    1.1,    0.2,    0.1,    0.3,    0.3,  999.0,    0.1,    0.2,   -0.1,   -0.0,   -0.3,   -0.5,  999.0,   -0.1,  999.0,    0.5,    0.2,   -0.1,   -0.1,   -0.5,   -0.3,    0.1,   -0.0,   -0.1,   -0.0,   -0.0,   -0.1,   -0.1,    0.0,    0.1,   -0.0,    0.0,    0.1,    0.0,   -0.1,    0.0,   -0.1,   -0.0,   -0.6,   -0.1,    0.2,   -0.1,   -0.2,   -0.2,    0.0,    0.1,    0.2,  999.0,  999.0,  999.0,  999.0,  999.0,  999.0,  999.0,  999.0,  999.0,  999.0,  999.0,  999.0
2014/01/03 16:00,  999.0,  999.0,    0.0,   -0.0,  999.0,  999.0,  999.0,  999.0,   -0.1,   -0.0,    0.0,    0.0,   -0.0,    0.0,   -0.2,    0.3,   -0.0,   -0.3,   -0.1,   -0.0,    0.1,    0.4,   -0.1,    0.2,    0.2,    0.1,    0.0,   -0.3,    0.2,    0.4,    0.0,   -0.1,  999.0,  999.0,   -0.2,  999.0,    0.0,  999.0,  999.0,  999.0,   -0.1,   -0.1,    0.0,   -0.1,   -0.1,   -0.1,   -0.1,   -0.2,    0.1,   -0.1,   -0.0,   -0.0,    0.1,   -0.2,   -0.0,   -0.0,    0.1,    0.1,   -0.1,   -0.1,   -0.1,   -0.2,    0.2,   -0.1,    0.0,    0.3,  999.0,   -0.2,  999.0,  999.0,  999.0,  999.0,  999.0,  999.0,  999.0,  999.0,  999.0,  999.0,  999.0,  999.0
2014/01/03 16:10,  999.0,  999.0,    0.1,    0.1,   -0.2,  999.0,  999.0,  999.0,    0.2,    0.0,    0.1,    0.3,    0.2,    0.6,    0.7,    0.6,    0.5,    0.2,    0.3,    0.1,    0.1,    0.0,   -0.0,    0.4,    0.1,    0.0,    0.0,    0.1,    0.1,   -0.2,   -0.2,   -0.3,  999.0,    0.3,   -0.1,  999.0,   -0.2,  999.0,  999.0,    0.4,    0.1,   -0.1,   -0.1,   -0.1,   -0.0,   -0.1,   -0.2,    0.1,    0.3,    0.0,   -0.1,    0.1,    0.1,   -0.0,    0.1,   -0.1,   -0.0,   -0.2,   -0.1,    0.2,    0.1,    0.1,   -0.2,   -0.1,   -0.1,    0.1,    0.3,   -0.2,  999.0,  999.0,  999.0,  999.0,  999.0,  999.0,  999.0,  999.0,  999.0,  999.0,  999.0,  999.0
2014/01/03 16:20,  999.0,  999.0,   -0.1,   -0.0,   -0.0,  999.0,  999.0,   -0.4,   -0.1,   -0.1,    0.2,    0.2,    0.1,    0.4,    0.6,    1.2,    1.4,    0.6,    0.4,    0.2,    0.2,    0.5,    0.8,   -0.1,    0.0,   -0.0,   -0.1,   -0.0,    0.0,   -0.2,    0.2,    0.1,    0.2,  999.0,   -0.1,  999.0,  999.0,    0.2,   -0.1,    0.3,   -0.1,   -0.2,   -0.1,   -0.0,   -0.0,   -0.4,   -0.1,    0.1,    0.1,   -0.0,   -0.1,    0.0,    0.2,   -0.3,   -0.2,    0.2,   -0.0,    0.2,   -0.2,   -0.0,   -0.0,    0.0,    0.1,   -0.1,   -0.1,   -0.3,   -0.2,   -0.2,  999.0,  999.0,  999.0,  999.0,  999.0,  999.0,  999.0,  999.0,  999.0,  999.0,  999.0,  999.0
2014/01/03 16:30,  999.0,  999.0,    0.2,    0.0,    0.0,  999.0,    0.0,  999.0,    0.3,    0.5,    0.8,    0.9,    0.7,    0.9,    0.9,    1.1,    1.2,    0.6,    0.3,    0.3,    0.1,    0.2,    0.2,   -0.1,    0.0,   -0.0,    0.3,   -0.1,    0.1,    0.2,   -0.2,    0.1,   -0.1,    0.2,    0.0,  999.0,   -0.3,   -0.1,  999.0,   -0.1,   -0.0,   -0.1,    0.1,    0.2,    0.1,    0.1,   -0.0,   -0.0,   -0.2,   -0.1,   -0.2,   -0.1,    0.1,    0.0,   -0.1,   -0.1,   -0.1,   -0.1,   -0.0,    0.1,   -0.0,    0.0,   -0.0,   -0.0,   -0.2,    0.1,    0.0,   -0.1,   -0.0,  999.0,  999.0,  999.0,  999.0,  999.0,  999.0,  999.0,  999.0,  999.0,  999.0,  999.0
2014/01/03 16:40,  999.0,  999.0,    0.0,    0.0,    0.1,   -0.0,   -0.1,    0.0,   -0.0,    0.1,    0.2,    0.6,    0.7,    0.7,    0.9,    1.1,    1.1,    0.4,    0.1,   -0.0,   -0.1,   -0.1,    0.1,    0.1,    0.0,    0.0,    0.2,    0.0,   -0.2,   -0.2,   -0.2,   -0.0,   -0.0,    0.1,    0.5,    0.1,    0.3,    0.2,    0.2,   -0.1,   -0.1,   -0.0,    0.0,    0.1,    0.1,   -0.1,   -0.1,   -0.1,    0.0,   -0.0,    0.1,   -0.2,   -0.1,   -0.0,   -0.1,   -0.1,   -0.2,   -0.3,    0.0,    0.1,   -0.0,   -0.2,   -0.5,   -0.2,   -0.3,   -1.2,  999.0,   -0.2,   -0.5,  999.0,  999.0,  999.0,  999.0,  999.0,  999.0,  999.0,  999.0,  999.0,  999.0,  999.0
2014/01/03 16:50,  999.0,  999.0,    0.1,    0.4,    0.2,    0.1,    0.0,  999.0,    0.2,    0.1,    0.3,    1.1,    1.1,    1.4,    1.1,    1.5,    1.6,    0.9,    0.5,    0.2,   -0.0,    0.1,   -0.2,    0.0,   -0.1,    0.0,   -0.1,    0.0,   -0.3,    0.1,    0.0,   -0.1,   -0.1,   -0.1,  999.0,  999.0,  999.0,  999.0,   -0.0,    0.1,   -0.1,   -0.0,   -0.0,    0.1,    0.2,    0.2,    0.2,   -0.1,   -0.1,   -0.1,   -0.0,    0.0,   -0.2,    0.2,   -0.4,   -0.6,   -0.7,   -1.3,   -1.0,   -1.4,   -2.2,   -2.2,   -2.0,   -1.9,   -1.7,   -0.4,    0.1,   -0.2,  999.0,  999.0,  999.0,  999.0,  999.0,  999.0,  999.0,  999.0,  999.0,  999.0,  999.0,  999.0
2014/01/03 17:00,  999.0,  999.0,   -0.1,   -0.1,    0.1,  999.0,  999.0,  999.0,  999.0,    0.1,    1.0,    1.8,    1.0,    1.1,    1.3,    1.1,    0.7,    0.2,    0.2,   -0.0,   -0.1,    0.0,    0.1,    0.0,    0.0,    0.0,   -0.0,    0.0,    0.0,    0.0,    0.0,    0.3,    0.1,   -0.1,    0.0,    0.0,   -0.1,    0.1,   -0.1,   -0.3,   -0.1,   -0.1,    0.0,   -0.0,    0.1,   -0.1,    0.1,    0.0,    0.1,   -0.3,    0.1,    0.1,   -0.1,   -0.6,   -1.7,   -0.9,   -1.1,   -0.8,   -1.2,   -0.7,   -0.7,   -0.7,   -0.6,   -0.6,   -0.5,   -0.5,  999.0,   -0.1,  999.0,  999.0,  999.0,  999.0,  999.0,  999.0,  999.0,  999.0,  999.0,  999.0,  999.0,  999.0
2014/01/03 17:10,  999.0,  999.0,    0.0,    0.0,    0.1,    0.0,    0.0,  999.0,  999.0,    0.1,    1.5,    2.0,    1.6,    2.1,    2.0,    1.6,    0.9,    0.3,   -0.1,   -0.2,    0.0,    0.2,    0.2,   -0.0,   -0.0,    0.0,   -0.1,    0.0,   -0.1,    0.0,   -0.0,   -0.1,   -0.1,   -0.0,   -0.0,   -0.1,    0.1,   -0.0,    0.0,   -0.1,   -0.0,    0.2,    0.1,    0.0,    0.1,    0.1,  999.0,    0.2,   -0.1,   -0.1,   -0.9,  999.0,  999.0,  999.0,  999.0,   10.9,   11.5,   11.3,  999.0,  999.0,  999.0,  999.0,  999.0,   -1.0,   -0.6,    0.1,   -0.1,   -0.0,   -0.3,  999.0,  999.0,   -0.0,  999.0,  999.0,  999.0,  999.0,  999.0,  999.0,  999.0,  999.0
2014/01/03 17:20,  999.0,  999.0,   -0.1,    0.0,    0.1,    0.2,    0.2,    0.3,    0.6,    0.5,    0.8,    1.3,    0.8,    1.3,    1.3,    0.6,   -0.2,    0.4,    0.3,    0.1,    0.1,   -0.1,    0.0,   -0.1,    0.1,   -0.0,   -0.0,    0.2,    0.0,   -0.1,    0.1,    0.0,   -0.1,   -0.0,   -0.1,   -0.2,   -0.0,   -0.1,   -0.1,   -0.2,   -0.0,   -0.1,    0.1,    0.1,    0.3,    0.0,  999.0,  999.0,  999.0,  999.0,  999.0,   22.0,   18.8,   18.4,   18.4,   19.3,   14.8,   16.3,  999.0,  999.0,  999.0,  999.0,  999.0,  999.0,  999.0,  999.0,   -0.4,   -0.3,  999.0,  999.0,  999.0,  999.0,  999.0,  999.0,  999.0,  999.0,  999.0,  999.0,  999.0,  999.0
2014/01/03 17:30,  999.0,  999.0,   -0.1,   -0.2,    0.0,  999.0,   -0.0,  999.0,    0.1,    0.2,  999.0,  999.0,  999.0,  999.0,  999.0,  999.0,   -0.2,    0.1,    0.1,    0.1,    0.2,    0.2,    0.1,    0.1,   -0.1,    0.0,    0.1,    0.1,   -0.3,   -0.0,   -0.0,   -0.1,   -0.1,   -0.1,    0.0,    0.0,  999.0,   -0.0,    0.1,    0.0,   -0.2,    0.2,   -0.2,   -0.1,   -0.0,    0.1,  999.0,  999.0,  999.0,  999.0,   26.9,   26.8,   27.6,   27.3,  999.0,  999.0,  999.0,  999.0,  999.0,  999.0,  999.0,  999.0,  999.0,  999.0,  999.0,  999.0,   -0.8,  999.0,  999.0,  999.0,  999.0,  999.0,  999.0,  999.0,  999.0,  999.0,  999.0,  999.0,  999.0,  999.0
2014/01/03 17:40,  999.0,  999.0,    0.0,    0.1,    0.4,  999.0,   -0.5,  999.0,  999.0,  999.0,   -4.2,  999.0,  999.0,  999.0,  999.0,  999.0,  999.0,    0.8,    0.4,    0.4,    0.4,    0.7,    0.5,    0.1,   -0.1,   -0.0,    0.0,    0.1,    0.2,   -0.3,   -0.1,   -0.0,    0.1,    0.3,   -0.2,   -0.4,   -0.1,    0.1,    0.0,   -0.0,   -0.3,   -0.2,    0.0,   -0.0,   -0.1,   -0.1,  999.0,  999.0,  999.0,  999.0,   25.8,   27.7,  999.0,  999.0,  999.0,  999.0,  999.0,  999.0,  999.0,  999.0,  999.0,  999.0,   -0.5,   -0.1,   -0.3,   -0.2,   -0.4,  999.0,  999.0,    0.1,    0.1,  999.0,  999.0,  999.0,  999.0,  999.0,  999.0,  999.0,  999.0,  999.0
2014/01/03 17:50,  999.0,  999.0,   -0.1,    0.2,    0.1,  999.0,  999.0,  999.0,  999.0,  999.0,    2.1,   -1.3,   -0.3,    0.5,  999.0,   -0.3,    0.6,    0.4,    0.4,    0.8,    1.0,    2.0,    1.3,    0.4,    0.1,   -0.1,   -0.1,    0.0,   -0.1,    0.1,    0.1,    0.0,   -0.1,   -0.0,   -0.0,    0.1,    0.2,   -0.2,   -0.1,   -0.1,   -0.1,    0.1,    0.0,   -0.1,  999.0,  999.0,  999.0,  999.0,    7.9,    7.3,    8.8,   10.5,   11.1,   12.2,   13.4,   14.1,  999.0,  999.0,  999.0,  999.0,  999.0,   -0.5,    0.1,   -0.2,    0.0,   -0.0,   -0.0,  999.0,    0.2,    0.1,    0.1,   -0.1,  999.0,  999.0,  999.0,  999.0,  999.0,  999.0,  999.0,  999.0
2014/01/03 18:00,  999.0,  999.0,   -0.3,    0.6,    0.2,    0.2,  999.0,    0.1,    0.0,    0.1,    0.4,    0.5,    0.2,    0.4,    0.3,   -0.1,    0.2,    0.3,    0.8,    1.4,    2.5,    1.2,    0.3,    0.2,   -0.0,    0.1,   -0.1,    0.2,   -0.0,   -0.2,   -0.2,    0.2,    0.1,    0.1,    0.0,   -0.1,    0.1,   -0.0,    0.0,   -0.2,   -0.4,   -0.0,    0.0,    0.0,   -0.0,    0.1,   -0.1,   -0.1,   -0.3,   -0.8,   -1.7,   -2.5,   -2.5,   -0.9,   -0.8,   -0.5,   -0.7,   -0.5,   -0.1,   -0.5,   -0.4,   -0.3,   -0.2,   -0.1,   -0.1,   -0.1,   -0.1,   -0.0,    0.1,  999.0,   -0.2,   -0.0,  999.0,  999.0,  999.0,  999.0,  999.0,  999.0,  999.0,  999.0
2014/01/03 18:10,  999.0,  999.0,   -0.0,    0.0,    0.2,    0.3,    0.1,    0.1,    0.5,    0.5,  999.0,  999.0,  999.0,    0.7,    0.1,    0.3,    0.4,    0.2,    0.3,    0.7,    0.4,    0.2,   -0.2,   -0.1,   -0.1,    0.1,    0.1,   -0.1,   -0.1,   -0.2,    0.1,    0.1,   -0.1,    0.1,    0.3,   -0.1,    0.0,    0.0,   -0.1,   -0.1,   -0.2,   -0.0,   -0.0,   -0.1,   -0.0,   -0.0,    0.0,    0.1,   -0.1,    0.1,   -0.0,    0.0,   -0.1,    0.1,   -0.1,   -0.2,   -0.1,    0.1,   -0.1,   -0.0,    0.1,    0.0,    0.0,   -0.1,    0.1,    0.1,    0.1,    0.0,   -0.0,   -0.5,    0.3,  999.0,  999.0,  999.0,  999.0,  999.0,  999.0,  999.0,  999.0,  999.0
2014/01/03 18:20,  999.0,  999.0,  999.0,    0.2,  999.0,  999.0,  999.0,  999.0,  999.0,    0.2,    0.9,  999.0,    0.0,    0.9,    0.3,    0.2,    0.1,    0.2,    0.3,    0.7,    0.4,    0.1,    0.0,    0.0,    0.0,   -0.0,   -0.0,   -0.0,    0.1,   -0.0,    0.1,   -0.0,   -0.1,   -0.1,   -0.2,    0.1,   -0.1,   -0.1,   -0.0,    0.1,   -0.3,   -0.0,   -0.1,   -0.2,   -0.1,   -0.2,   -0.1,   -0.2,   -0.1,    0.1,   -0.1,   -0.1,   -0.0,    0.1,   -0.1,   -0.1,   -0.0,   -0.0,   -0.5,   -0.2,   -0.2,   -0.3,   -0.0,    0.0,   -0.3,   -0.1,   -0.1,    0.1,    0.0,  999.0,    0.3,    0.3,  999.0,  999.0,  999.0,  999.0,  999.0,  999.0,  999.0,  999.0
2014/01/03 18:30,  999.0,  999.0,  999.0,    0.2,   -0.0,  999.0,   -0.2,  999.0,   -0.3,    0.0,   -0.1,    0.0,    0.0,    0.1,    0.0,   -0.0,    0.0,    0.0,    0.0,   -0.1,    0.1,    0.1,    0.1,    0.1,   -0.0,   -0.1,    0.1,   -0.1,   -0.2,   -0.3,   -0.1,   -0.0,   -0.1,    0.2,   -0.1,   -0.1,   -0.1,   -0.1,   -0.1,   -0.0,    0.0,   -0.3,   -0.1,   -0.0,   -0.0,    0.1,    0.2,   -0.0,    0.1,   -0.1,   -0.0,   -0.2,   -0.0,    0.2,   -0.2,    0.0,   -0.1,    0.0,    0.1,    0.1,    0.2,    0.0,   -0.1,   -0.1,   -0.2,   -0.1,   -0.1,   -0.2,  999.0,    0.2,    0.3,    0.1,   -0.1,    0.1,  999.0,  999.0,  999.0,  999.0,  999.0,  999.0
2014/01/03 18:40,  999.0,  999.0,  999.0,    0.0,    0.1,    0.1,  999.0,   -0.0,  999.0,  999.0,   -0.0,    0.0,    0.0,    0.1,   -0.0,    0.0,  999.0,    0.0,   -0.0,    0.1,    0.0,   -0.2,   -0.0,   -0.0,    0.1,    0.2,    0.0,   -0.2,   -0.0,   -0.0,    0.0,    0.0,    0.1,    0.1,   -0.1,    0.1,    0.2,    0.2,    0.0,   -0.0,   -0.0,    0.2,    0.0,    0.0,    0.0,   -0.1,   -0.1,   -0.1,    0.0,    0.0,   -0.2,   -0.3,    0.0,   -0.1,   -0.1,   -0.1,   -0.1,   -0.0,   -0.1,   -0.0,    0.1,    0.0,    0.0,    0.1,    0.2,   -0.1,   -0.1,    0.1,   -0.2,    0.0,  999.0,   -0.3,   -0.0,    0.0,   -0.2,  999.0,  999.0,  999.0,  999.0,  999.0
2014/01/03 18:50,  999.0,  999.0,  999.0,    0.0,    0.0,    0.1,    0.1,  999.0,    0.0,   -0.1,    0.1,   -0.0,    0.1,    0.0,    0.0,   -0.0,    0.0,   -0.2,   -0.1,   -0.0,    0.0,   -0.1,   -0.2,    0.1,    0.0,    0.0,   -0.1,    0.0,   -0.1,    0.2,    0.0,    0.0,    0.1,   -0.0,   -0.0,   -0.1,   -0.1,   -0.1,    0.1,    0.0,    0.1,   -0.0,    0.0,    0.1,   -0.1,    0.1,    0.1,   -0.0,   -0.1,   -0.1,   -0.1,    0.0,    0.0,    0.1,    0.1,   -0.1,   -0.0,   -0.0,   -0.0,   -0.0,   -0.0,   -0.1,   -0.1,   -0.1,    0.0,    0.0,    0.0,    0.0,   -0.1,    0.1,   -0.1,  999.0,    0.2,   -0.2,   -0.1,  999.0,  999.0,  999.0,  999.0,  999.0
2014/01/03 19:00,  999.0,  999.0,   -0.1,    0.0,    0.0,  999.0,   -0.1,    0.0,    0.2,   -0.0,    0.1,    0.0,    0.0,   -0.1,   -0.1,   -0.1,    0.0,  999.0,    0.0,    0.1,    0.0,    0.1,    0.0,   -0.2,   -0.0,    0.0,   -0.0,   -0.1,   -0.1,    0.0,   -0.1,   -0.0,    0.1,    0.1,    0.1,    0.1,   -0.1,    0.1,   -0.0,   -0.1,   -0.1,    0.0,   -0.1,    0.0,   -0.0,   -0.1,   -0.0,    0.1,    0.1,    0.0,    0.1,    0.0,    0.1,   -0.0,   -0.0,   -0.0,    0.1,    0.0,   -0.0,   -0.1,   -0.1,   -0.0,    0.1,    0.2,   -0.1,    0.1,    0.0,    0.0,    0.1,   -0.1,   -0.1,    0.2,    0.2,    0.0,  999.0,  999.0,  999.0,  999.0,  999.0,  999.0
2014/01/03 19:10,  999.0,  999.0,   -0.0,    0.0,    0.1,    0.1,   -0.0,    0.1,    0.1,    0.0,   -0.1,    0.0,    0.0,    0.0,   -0.0,   -0.0,   -0.0,   -0.1,   -0.1,   -0.2,   -0.1,    0.0,   -0.0,   -0.1,   -0.1,    0.0,   -0.1,   -0.2,   -0.0,    0.1,    0.1,    0.0,    0.2,    0.2,    0.0,    0.0,    0.1,    0.1,   -0.1,    0.1,    0.0,    0.1,    0.1,    0.0,    0.0,   -0.1,   -0.1,    0.0,   -0.1,    0.0,    0.0,    0.1,    0.1,   -0.1,    0.0,   -0.0,    0.0,    0.0,   -0.0,    0.0,    0.0,    0.1,   -0.1,    0.1,    0.0,    0.0,    0.0,   -0.0,   -0.0,   -0.4,  999.0,  999.0,   -0.1,  999.0,   -0.2,   -0.1,  999.0,  999.0,  999.0,  999.0
2014/01/03 19:20,  999.0,  999.0,   -0.0,    0.1,   -0.0,   -0.0,    0.3,   -0.0,  999.0,    0.0,   -0.0,   -0.0,    0.0,   -0.0,   -0.1,   -0.0,    0.0,    0.1,    0.2,   -0.1,   -0.1,   -0.1,   -0.1,   -0.0,   -0.0,    0.1,    0.0,    0.0,   -0.1,   -0.1,   -0.1,   -0.1,    0.0,    0.0,    0.0,   -0.0,   -0.1,   -0.0,   -0.2,   -0.1,   -0.0,   -0.0,    0.1,    0.1,   -0.1,   -0.1,   -0.0,   -0.0,    0.1,   -0.1,   -0.1,   -0.1,    0.0,   -0.0,   -0.0,   -0.1,   -0.0,    0.0,    0.0,   -0.0,    0.0,   -0.1,   -0.1,    0.0,    0.0,    0.1,    0.0,   -0.0,   -0.0,    0.1,    0.1,  999.0,   -0.1,   -0.1,    0.3,  999.0,  999.0,  999.0,  999.0,  999.0
2014/01/03 19:30,  999.0,  999.0,   -0.1,   -0.1,    0.0,    0.2,  999.0,   -0.0,    0.0,    0.2,   -0.0,    0.1,    0.1,   -0.0,   -0.0,   -0.1,   -0.0,   -0.0,    0.0,    0.1,    0.1,   -0.1,   -0.0,   -0.1,   -0.1,    0.1,    0.1,    0.0,    0.0,   -0.1,    0.1,    0.0,    0.1,   -0.1,   -0.0,    0.1,    0.1,   -0.2,   -0.1,    0.0,   -0.1,   -0.0,   -0.1,   -0.0,   -0.0,    0.0,    0.1,   -0.0,   -0.0,    0.0,    0.0,    0.1,   -0.0,    0.0,   -0.0,   -0.0,   -0.0,   -0.1,   -0.0,    0.1,    0.0,    0.1,    0.0,    0.1,    0.1,    0.1,   -0.0,    0.0,   -0.0,   -0.0,  999.0,   -0.0,  999.0,   -0.2,    0.1,  999.0,  999.0,  999.0,  999.0,  999.0
2014/01/03 19:40,  999.0,  999.0,   -0.2,   -0.1,   -0.2,    0.1,    0.0,    0.1,  999.0,   -0.1,   -0.0,    0.0,    0.1,    0.0,   -0.1,   -0.0,   -0.1,   -0.1,   -0.0,   -0.1,    0.0,   -0.0,    0.0,    0.1,   -0.1,   -0.0,   -0.3,    0.1,    0.0,   -0.0,    0.0,   -0.1,   -0.1,   -0.1,   -0.1,   -0.0,   -0.1,    0.1,   -0.0,   -0.0,   -0.0,   -0.1,   -0.0,   -0.1,   -0.0,   -0.0,   -0.1,    0.0,    0.1,    0.0,   -0.1,   -0.0,   -0.1,   -0.0,    0.1,   -0.1,   -0.0,    0.0,    0.1,   -0.0,   -0.2,   -0.2,   -0.1,   -0.0,    0.1,   -0.0,    0.0,    0.1,    0.1,    0.1,  999.0,  999.0,    0.0,    0.3,   -0.2,  999.0,  999.0,  999.0,  999.0,  999.0
2014/01/03 19:50,  999.0,  999.0,  999.0,    0.0,   -0.1,    0.0,    0.1,    0.1,  999.0,    0.1,    0.3,    0.1,    0.0,    0.1,    0.2,   -0.0,  999.0,  999.0,    0.0,   -0.1,   -0.1,   -0.1,   -0.0,   -0.1,   -0.1,    0.1,   -0.2,   -0.2,   -0.1,   -0.1,   -0.0,   -0.0,    0.0,   -0.0,   -0.1,   -0.1,   -0.1,   -0.0,    0.1,   -0.1,   -0.0,   -0.0,    0.1,   -0.1,   -0.1,    0.0,   -0.1,    0.1,    0.1,   -0.0,    0.1,   -0.1,   -0.1,    0.0,   -0.0,   -0.1,    0.0,    0.0,    0.0,    0.1,   -0.0,    0.2,   -0.1,   -0.0,    0.0,   -0.0,    0.0,    0.0,    0.0,    0.4,  999.0,    0.1,   -0.1,    0.0,  999.0,  999.0,  999.0,  999.0,  999.0,  999.0
2014/01/03 20:00,  999.0,  999.0,   -0.1,   -0.2,   -0.1,   -0.1,   -0.0,  999.0,    0.1,  999.0,    0.0,    0.2,    0.1,    0.0,    0.0,   -0.0,    0.0,  999.0,  999.0,   -0.1,   -0.1,   -0.0,   -0.1,   -0.2,   -0.2,   -0.1,   -0.0,   -0.1,   -0.0,    0.0,   -0.2,   -0.0,   -0.1,   -0.3,   -0.2,   -0.1,   -0.1,   -0.2,   -0.2,   -0.1,    0.2,    0.0,    0.0,    0.0,   -0.1,   -0.1,   -0.2,    0.0,   -0.1,    0.1,    0.0,   -0.0,   -0.0,    0.1,   -0.1,   -0.1,   -0.1,   -0.1,   -0.0,    0.0,    0.1,    0.2,   -0.1,    0.1,   -0.1,   -0.0,    0.0,   -0.0,    0.1,    0.0,  999.0,  999.0,  999.0,   -0.0,  999.0,  999.0,  999.0,  999.0,  999.0,  999.0
2014/01/03 20:10,  999.0,  999.0,   -0.0,   -0.0,    0.1,    0.1,    0.1,    0.0,    0.1,   -0.0,   -0.0,    0.1,    0.1,    0.1,   -0.1,    0.0,    0.0,  999.0,    0.1,    0.1,    0.1,   -0.0,   -0.2,   -0.2,   -0.0,   -0.1,    0.1,    0.0,  999.0,    0.1,   -0.0,   -0.0,    0.1,    0.1,    0.1,    0.1,   -0.0,    0.1,    0.2,    0.1,   -0.1,   -0.0,    0.0,   -0.1,   -0.2,   -0.0,   -0.0,   -0.0,    0.0,   -0.0,   -0.1,   -0.0,    0.1,   -0.1,    0.1,    0.0,    0.1,    0.0,   -0.0,   -0.0,   -0.1,   -0.1,    0.0,    0.1,    0.0,    0.1,   -0.0,    0.1,    0.1,    0.0,  999.0,  999.0,   -0.4,   -0.0,  999.0,  999.0,  999.0,  999.0,  999.0,  999.0
2014/01/03 20:20,  999.0,  999.0,    0.1,   -0.1,   -0.0,   -0.0,   -0.0,   -0.0,   -0.0,  999.0,    0.1,   -0.0,   -0.0,    0.1,   -0.1,   -0.0,    0.2,    0.1,   -0.1,   -0.1,   -0.1,    0.1,   -0.0,   -0.3,   -0.3,    0.0,   -0.0,   -0.1,    0.1,   -0.0,    0.1,    0.1,   -0.1,   -0.0,    0.1,    0.0,   -0.1,    0.1,    0.1,   -0.2,   -0.1,   -0.1,   -0.0,   -0.1,   -0.0,   -0.0,   -0.0,   -0.0,    0.2,    0.1,    0.1,    0.1,    0.0,   -0.0,    0.1,    0.1,    0.0,    0.1,   -0.0,   -0.1,   -0.0,    0.1,   -0.0,    0.0,   -0.0,   -0.0,    0.1,    0.1,    0.0,   -0.0,   -0.1,  999.0,    0.4,    0.4,    0.2,  999.0,  999.0,  999.0,  999.0,  999.0
2014/01/03 20:30,  999.0,  999.0,  999.0,    0.1,    0.1,    0.1,   -0.0,  999.0,  999.0,   -0.1,    0.2,   -0.1,   -0.2,   -0.0,   -0.1,   -0.1,    0.0,    0.1,  999.0,   -0.0,  999.0,   -0.0,   -0.1,    0.1,   -0.0,   -0.0,   -0.0,    0.1,    0.0,   -0.1,   -0.0,   -0.0,   -0.1,    0.2,    0.1,    0.1,    0.2,    0.1,    0.1,    0.0,    0.0,    0.0,   -0.1,    0.0,    0.1,    0.1,    0.0,    0.0,    0.1,    0.0,   -0.0,   -0.0,    0.0,   -0.0,    0.1,   -0.0,    0.1,    0.1,   -0.0,    0.0,   -0.1,    0.1,    0.2,    0.1,    0.1,   -0.0,    0.1,    0.1,   -0.1,    0.3,    0.1,   -0.2,   -0.4,   -0.2,    0.0,  999.0,  999.0,  999.0,  999.0,  999.0
2014/01/03 20:40,  999.0,  999.0,  999.0,   -0.1,   -0.0,   -0.1,   -0.2,  999.0,  999.0,  999.0,  999.0,  999.0,  999.0,    0.1,  999.0,  999.0,  999.0,   -0.1,    0.1,   -0.0,  999.0,  999.0,   -0.1,    0.0,    0.0,    0.0,    0.1,    0.2,    0.1,   -0.1,  999.0,   -0.1,    0.0,    0.1,   -0.0,    0.1,    0.1,   -0.0,    0.1,    0.0,   -0.1,   -0.0,    0.0,   -0.0,    0.1,    0.1,    0.1,    0.0,    0.0,   -0.0,    0.0,   -0.0,    0.0,    0.0,   -0.0,   -0.1,   -0.0,   -0.0,    0.0,    0.1,   -0.0,   -0.0,   -0.0,   -0.0,   -0.1,    0.0,    0.1,    0.0,   -0.0,   -0.2,   -0.0,  999.0,  999.0,   -0.4,  999.0,  999.0,  999.0,  999.0,  999.0,  999.0
2014/01/03 20:50,  999.0,  999.0,  999.0,   -0.1,    0.0,  999.0,    0.1,  999.0,  999.0,  999.0,   -0.1,   -0.0,   -0.0,   -0.1,   -0.0,  999.0,  999.0,  999.0,    0.1,    0.1,    0.1,    0.1,    0.1,   -0.0,   -0.1,   -0.0,    0.1,   -0.0,   -0.1,    0.0,    0.1,   -0.1,   -0.0,    0.0,   -0.0,    0.0,   -0.1,    0.0,    0.1,   -0.0,   -0.1,    0.1,    0.0,    0.2,    0.2,   -0.0,    0.0,   -0.0,   -0.0,    0.1,   -0.1,   -0.1,   -0.1,   -0.1,   -0.0,   -0.1,   -0.1,   -0.1,   -0.1,   -0.1,   -0.0,    0.0,   -0.1,    0.1,    0.0,   -0.1,    0.1,   -0.0,    0.2,    0.2,  999.0,   -0.5,  999.0,  999.0,   -0.2,  999.0,  999.0,  999.0,  999.0,  999.0
2014/01/03 21:00,  999.0,  999.0,   -0.1,   -0.0,    0.0,   -0.0,   -0.0,   -0.0,  999.0,  999.0,   -0.1,   -0.1,   -0.1,   -0.0,    0.0,   -0.0,   -0.0,   -0.1,   -0.0,    0.0,    0.1,   -0.0,    0.0,   -0.0,   -0.0,   -0.1,   -0.0,   -0.1,   -0.1,   -0.1,    0.0,    0.1,    0.1,   -0.0,   -0.0,    0.0,   -0.1,   -0.1,    0.1,   -0.1,    0.0,    0.0,   -0.0,   -0.1,   -0.1,   -0.1,   -0.1,    0.1,   -0.1,   -0.2,   -0.2,    0.1,    0.0,    0.1,   -0.1,   -0.2,    0.0,    0.0,    0.2,    0.0,   -0.0,    0.0,    0.0,    0.1,    0.0,    0.0,    0.2,    0.1,    0.1,   -0.1,  999.0,    0.1,  999.0,  999.0,   -0.1,  999.0,  999.0,  999.0,  999.0,  999.0
2014/01/03 21:10,  999.0,  999.0,   -0.1,    0.1,  999.0,  999.0,  999.0,  999.0,  999.0,    0.1,   -0.0,   -0.1,   -0.1,   -0.1,    0.0,   -0.1,   -0.0,  999.0,   -0.0,   -0.0,   -0.1,   -0.1,   -0.1,   -0.1,   -0.0,    0.1,    0.1,    0.1,    0.0,   -0.1,   -0.0,   -0.0,    0.1,   -0.1,   -0.1,   -0.1,    0.0,   -0.0,   -0.0,   -0.1,   -0.2,   -0.1,   -0.2,   -0.0,   -0.0,   -0.0,    0.0,   -0.1,   -0.0,    0.2,    0.2,    0.1,    0.0,   -0.0,   -0.0,    0.1,   -0.0,    0.0,   -0.0,   -0.1,   -0.1,   -0.1,   -0.0,   -0.2,   -0.1,    0.0,    0.1,    0.1,    0.1,    0.0,    0.0,  999.0,  999.0,   -0.1,   -0.1,  999.0,  999.0,  999.0,  999.0,  999.0
2014/01/03 21:20,  999.0,  999.0,  999.0,    0.1,   -0.1,  999.0,  999.0,  999.0,    0.0,    0.1,    0.0,   -0.0,   -0.0,   -0.0,    0.1,    0.1,    0.0,   -0.1,   -0.0,   -0.1,    0.0,    0.2,   -0.1,   -0.0,    0.1,    0.1,    0.0,   -0.2,   -0.1,    0.0,   -0.1,   -0.0,    0.2,    0.1,    0.1,    0.0,   -0.1,   -0.0,   -0.1,   -0.2,   -0.1,   -0.0,    0.1,    0.0,   -0.2,   -0.2,   -0.2,   -0.1,    0.1,   -0.1,    0.0,   -0.0,    0.0,   -0.0,   -0.0,   -0.2,    0.0,   -0.0,   -0.1,   -0.2,   -0.1,   -0.1,   -0.1,    0.1,   -0.0,   -0.1,    0.0,   -0.1,    0.0,  999.0,    0.2,   -0.4,   -0.1,   -0.1,   -0.0,  999.0,  999.0,  999.0,  999.0,  999.0
2014/01/03 21:30,  999.0,  999.0,   -0.2,    0.1,    0.1,    0.0,  999.0,  999.0,    0.0,   -0.0,   -0.0,    0.0,    0.0,   -0.0,   -0.1,   -0.0,   -0.1,    0.0,    0.0,   -0.0,   -0.0,   -0.1,    0.1,    0.1,    0.0,    0.0,   -0.0,   -0.1,   -0.1,   -0.1,   -0.1,   -0.1,    0.0,    0.1,    0.1,    0.1,   -0.1,    0.0,   -0.2,   -0.0,   -0.1,    0.0,   -0.0,    0.0,    0.0,    0.1,   -0.1,    0.1,    0.0,   -0.1,   -0.2,    0.0,   -0.0,    0.1,   -0.0,   -0.0,   -0.0,    0.1,   -0.0,   -0.0,    0.0,   -0.0,    0.0,    0.0,   -0.0,   -0.1,    0.0,   -0.1,    0.1,    0.9,   -0.1,   -0.0,   -0.0,   -0.1,    0.1,  999.0,  999.0,  999.0,  999.0,  999.0
2014/01/03 21:40,  999.0,  999.0,  999.0,    0.0,   -0.0,   -0.0,   -0.0,    0.0,    0.1,    0.1,    0.0,    0.2,    0.4,    0.2,    0.1,   -0.0,    0.1,   -0.1,   -0.1,    0.0,    0.0,    0.1,    0.0,   -0.0,   -0.1,   -0.1,   -0.1,    0.0,   -0.1,    0.0,    0.0,   -0.1,   -0.2,    0.0,    0.1,    0.1,    0.0,   -0.2,    0.0,    0.0,   -0.1,   -0.1,    0.0,    0.1,    0.0,   -0.0,   -0.3,    0.2,    0.1,   -0.0,   -0.0,   -0.1,   -0.2,   -0.1,    0.0,    0.0,   -0.1,    0.1,   -0.0,    0.1,    0.1,   -0.1,    0.1,   -0.1,   -0.1,   -0.0,    0.0,    0.0,    0.1,  999.0,    0.0,    0.1,  999.0,  999.0,   -0.2,  999.0,  999.0,  999.0,  999.0,  999.0
2014/01/03 21:50,  999.0,  999.0,   -0.0,    0.0,    0.1,  999.0,   -0.1,   -0.0,   -0.0,    0.0,    0.3,    0.4,    0.1,   -0.1,   -0.0,   -0.1,  999.0,    0.0,   -0.1,   -0.1,   -0.0,   -0.2,   -0.1,    0.0,   -0.1,    0.1,   -0.0,   -0.0,   -0.0,   -0.1,    0.1,   -0.1,   -0.1,   -0.1,   -0.1,    0.1,    0.1,    0.2,    0.3,    0.3,    0.2,   -0.2,    0.1,    0.0,   -0.0,   -0.1,   -0.2,   -0.1,   -0.0,   -0.1,    0.1,   -0.1,   -0.1,    0.0,   -0.1,    0.1,    0.1,    0.1,    0.2,    0.0,   -0.0,   -0.0,    0.1,    0.1,    0.1,   -0.0,   -0.0,    0.1,   -0.3,    0.1,   -0.1,   -0.2,    0.0,  999.0,  999.0,  999.0,  999.0,  999.0,  999.0,  999.0
2014/01/03 22:00,  999.0,  999.0,    0.0,   -0.1,  999.0,    0.1,   -0.0,  999.0,  999.0,   -0.2,  999.0,   10.3,    6.8,   -0.1,   -0.3,  999.0,  999.0,  999.0,  999.0,  999.0,    0.1,   -0.1,   -0.2,   -0.2,   -0.1,   -0.0,   -0.0,   -0.2,   -0.2,   -0.1,   -0.0,   -0.1,    0.2,   -0.1,   -0.0,   -0.1,   -0.1,    0.2,    0.1,    0.1,   -0.0,   -0.1,   -0.0,   -0.0,   -0.1,    0.1,   -0.0,   -0.0,    0.1,   -0.1,   -0.1,   -0.3,    0.2,    0.1,    0.1,    0.1,   -0.0,    0.1,    0.1,   -0.0,   -0.0,   -0.0,   -0.1,    0.2,   -0.0,  999.0,   -0.1,   -0.2,   -0.1,  999.0,  999.0,  999.0,    0.2,    0.1,  999.0,  999.0,  999.0,  999.0,  999.0,  999.0
2014/01/03 22:10,  999.0,  999.0,  999.0,  999.0,  999.0,  999.0,  999.0,  999.0,  999.0,  999.0,  999.0,  999.0,  999.0,   10.2,  999.0,  999.0,  999.0,  999.0,  999.0,  999.0,  999.0,  999.0,  999.0,  999.0,  999.0,  999.0,   -0.3,   -0.1,   -0.3,  999.0,  999.0,    0.1,    0.2,  999.0,  999.0,  999.0,  999.0,  999.0,   -0.0,  999.0,   -0.1,  999.0,    0.0,   -0.2,    0.2,    0.2,  999.0,    0.0,  999.0,    0.1,    0.3,   -0.1,  999.0,   -0.2,   -0.2,   -0.1,    0.4,    0.0,    0.5,    0.1,   -0.0,  999.0,  999.0,  999.0,  999.0,  999.0,  999.0,  999.0,  999.0,  999.0,  999.0,  999.0,  999.0,  999.0,  999.0,  999.0,  999.0,  999.0,  999.0,  999.0
2014/01/03 22:20,  999.0,  999.0,  999.0,  999.0,  999.0,  999.0,  999.0,  999.0,  999.0,  999.0,  999.0,  999.0,  999.0,  999.0,  999.0,  999.0,  999.0,  999.0,  999.0,  999.0,  999.0,  999.0,   -0.2,   -0.4,   -0.8,    0.0,   -0.2,   -0.1,   -0.2,    0.2,    0.0,   -0.0,   -0.1,    0.2,    0.2,  999.0,  999.0,  999.0,    0.1,    0.4,   -0.1,    0.0,    0.0,    0.2,    0.1,    0.1,   -0.0,    0.1,    0.2,    0.0,   -0.2,    0.0,    0.1,   -0.2,   -0.0,   -0.1,    0.0,    0.1,   -0.3,   -0.4,   -0.0,   -0.1,  999.0,   -0.6,  999.0,   -0.1,  999.0,  999.0,  999.0,  999.0,  999.0,  999.0,  999.0,  999.0,  999.0,  999.0,  999.0,  999.0,  999.0,  999.0
2014/01/03 22:30,  999.0,  999.0,  999.0,  999.0,  999.0,  999.0,  999.0,  999.0,  999.0,  999.0,  999.0,  999.0,  999.0,  999.0,  999.0,  999.0,  999.0,  999.0,  999.0,  999.0,  999.0,  999.0,  999.0,  999.0,   -0.3,   -0.1,   -0.5,   -0.1,   -0.2,   -0.1,   -0.1,    0.1,    0.0,   -0.1,   -0.1,    0.0,   -0.2,   -0.0,   -0.1,   -0.2,   -0.2,   -0.1,   -0.1,   -0.1,   -0.1,    0.0,   -0.1,   -0.1,    0.0,   -0.1,    0.0,    0.1,    0.2,   -0.1,    0.4,   -0.1,   -0.1,    0.2,   -0.2,    0.1,   -0.3,   -0.1,   -0.1,   -0.1,    0.1,  999.0,  999.0,  999.0,  999.0,  999.0,  999.0,  999.0,  999.0,  999.0,  999.0,  999.0,  999.0,  999.0,  999.0,  999.0
2014/01/03 22:40,  999.0,  999.0,  999.0,  999.0,  999.0,  999.0,  999.0,  999.0,    7.5,   19.9,   21.5,   23.1,   23.5,   25.5,  999.0,  999.0,  999.0,  999.0,  999.0,  999.0,  999.0,  999.0,  999.0,  999.0,  999.0,  999.0,  999.0,  999.0,  999.0,  999.0,  999.0,  999.0,  999.0,  999.0,  999.0,  999.0,  999.0,  999.0,  999.0,  999.0,  999.0,  999.0,  999.0,  999.0,  999.0,  999.0,  999.0,  999.0,  999.0,  999.0,  999.0,  999.0,  999.0,  999.0,  999.0,  999.0,  999.0,  999.0,  999.0,  999.0,  999.0,  999.0,  999.0,  999.0,  999.0,  999.0,  999.0,  999.0,  999.0,  999.0,  999.0,  999.0,  999.0,  999.0,  999.0,  999.0,  999.0,  999.0,  999.0,  999.0
2014/01/03 22:50,  999.0,  999.0,  999.0,  999.0,  999.0,  999.0,  999.0,  999.0,    5.6,    8.3,   10.5,   10.0,  999.0,    6.1,    6.9,    5.0,    5.8,   -0.1,   -0.0,    3.0,  999.0,   -0.2,   -0.1,   -0.1,   -0.1,   -0.0,   -0.1,   -0.0,   -0.0,   -0.1,   -0.2,   -0.1,   -0.1,   -0.0,   -0.1,   -0.0,    0.0,    0.0,    0.1,   -0.2,   -0.1,   -0.1,   -0.0,    0.0,    0.1,    0.1,    0.1,   -0.1,    0.1,   -0.1,   -0.1,    0.0,    0.0,    0.1,    0.1,    0.0,   -0.1,    0.0,   -0.1,    0.2,    0.2,    0.2,   -0.3,    0.1,    0.2,    0.2,    0.2,  999.0,  999.0,  999.0,  999.0,  999.0,  999.0,  999.0,  999.0,  999.0,  999.0,  999.0,  999.0,  999.0
2014/01/03 23:00,  999.0,  999.0,   -0.0,    0.1,    0.1,    0.0,    0.1,   -0.1,   -0.0,   -0.3,   -0.1,   -0.0,   -0.0,    0.1,   -0.1,   -0.0,    0.0,    0.2,    0.1,    0.1,    0.2,   -0.0,   -0.1,   -0.2,   -0.1,   -0.2,    0.2,   -0.1,   -0.0,   -0.3,   -0.3,   -0.1,   -0.1,    0.2,   -0.2,   -0.1,   -0.1,   -0.2,   -0.1,    0.0,   -0.1,   -0.1,    0.2,    0.1,    0.0,    0.0,   -0.0,    0.0,    0.0,    0.2,    0.2,   -0.1,    0.2,   -0.1,   -0.0,    0.1,   -0.2,    0.0,   -0.0,   -0.1,    0.0,    0.2,   -0.1,   -0.0,   -0.6,   -0.2,    0.0,  999.0,  999.0,  999.0,  999.0,  999.0,  999.0,  999.0,  999.0,  999.0,  999.0,  999.0,  999.0,  999.0
2014/01/03 23:10,  999.0,  999.0,    0.0,    0.1,    0.9,  999.0,    0.1,   -0.0,  999.0,    0.2,   13.6,   12.4,   10.9,   10.3,    9.7,   10.2,   11.5,    0.1,    0.1,   -0.0,   -0.1,    0.2,   -0.0,   -0.0,    0.1,    0.0,   -0.2,   -0.2,   -0.0,    0.0,   -0.0,   -0.0,   -0.1,   -0.1,   -0.1,   -0.1,    0.2,  999.0,    0.1,    0.0,   -0.2,   -0.1,    0.0,   -0.1,   -0.2,   -0.2,   -0.1,   -0.2,    0.1,   -0.3,   -0.3,   -0.2,    0.1,   -0.1,    0.1,   -0.0,    0.2,    0.0,   -0.2,   -0.3,    0.0,    0.1,   -0.1,   -0.1,   -0.1,   -0.0,  999.0,  999.0,  999.0,  999.0,  999.0,  999.0,  999.0,  999.0,  999.0,  999.0,  999.0,  999.0,  999.0,  999.0
2014/01/03 23:20,  999.0,  999.0,  999.0,    7.5,   10.4,  999.0,    9.3,  999.0,  999.0,   11.0,   20.7,   18.7,   18.5,   18.5,   19.9,   22.0,   23.5,  999.0,  999.0,  999.0,  999.0,  999.0,  999.0,  999.0,  999.0,  999.0,  999.0,  999.0,   -0.2,   -0.2,   -0.2,   -0.1,    0.1,   -0.0,   -0.1,    0.2,    0.2,   -0.1,    0.3,   -0.1,    0.0,    0.1,    0.3,    0.0,   -0.1,    0.1,   -0.1,    0.0,    0.3,    0.2,    0.1,   -0.0,   -0.1,   -0.0,    0.1,   -0.2,   -0.0,    0.3,   -0.0,   -0.1,    0.1,    0.3,    0.1,    0.3,    0.1,    0.2,  999.0,    0.3,  999.0,  999.0,  999.0,  999.0,  999.0,  999.0,  999.0,  999.0,  999.0,  999.0,  999.0,  999.0
2014/01/03 23:30,  999.0,  999.0,  999.0,    7.0,  999.0,  999.0,  999.0,  999.0,  999.0,   10.2,   10.0,    9.9,   11.1,   12.8,   15.0,   16.4,   17.9,   20.0,   21.3,   22.2,   22.9,   24.1,   25.1,   26.9,  999.0,  999.0,  999.0,  999.0,  999.0,    0.4,    0.2,   -0.1,   -0.2,    0.1,   -0.1,   -0.4,   -0.6,    0.1,    0.1,   -0.1,   -0.2,   -0.0,   -0.0,   -0.2,   -0.0,    0.3,  999.0,   -0.1,    0.2,    0.1,   -0.0,   -0.1,    0.1,    0.3,    0.2,    0.1,   -0.2,    0.1,   -0.3,   -0.1,   -0.1,   -0.2,   -0.4,    0.0,   -0.1,   -0.1,   -0.3,    0.1,    0.2,  999.0,  999.0,  999.0,  999.0,  999.0,  999.0,  999.0,  999.0,  999.0,  999.0,  999.0
2014/01/03 23:40,  999.0,  999.0,  999.0,    1.1,  999.0,  999.0,  999.0,  999.0,  999.0,  999.0,    8.2,    9.3,   10.4,   11.1,   12.7,   14.6,   16.0,   17.4,   19.0,   20.2,   21.3,   21.8,   23.7,  999.0,  999.0,  999.0,  999.0,   -0.0,   -0.1,   -0.0,   -0.3,    0.0,   -0.3,   -0.2,   -0.2,   -0.5,   -0.1,    0.0,   -0.0,   -0.1,   -0.2,   -0.1,   -0.0,    0.1,   -0.1,   -0.0,    0.1,   -0.2,   -0.0,    0.0,    0.0,    0.2,    0.1,   -0.1,   -0.0,   -0.1,   -0.2,    0.0,   -0.3,    0.0,    0.1,   -0.0,   -0.0,   -0.1,    0.0,   -0.1,    0.1,   -0.0,  999.0,   -0.1,    0.1,    0.2,   -0.1,   -0.2,  999.0,  999.0,  999.0,  999.0,  999.0,  999.0
2014/01/03 23:50,  999.0,  999.0,  999.0,  999.0,   -0.3,   -0.1,  999.0,  999.0,   -0.3,  999.0,    2.4,    3.4,   -0.1,   -0.5,  999.0,  999.0,   17.0,   13.9,    7.1,  999.0,   20.6,   19.2,  999.0,    2.2,  999.0,  999.0,   -0.0,   -0.3,   -0.0,   -0.1,    0.0,   -0.1,   -0.1,   -0.2,    0.0,   -0.1,    0.0,   -0.2,    0.0,    0.0,   -0.0,    0.1,    0.2,    0.0,    0.1,    0.1,    0.0,    0.1,   -0.0,    0.2,   -0.3,    0.1,   -0.1,   -0.0,   -0.0,    0.1,    0.0,    0.1,    0.1,   -0.2,    0.0,   -0.2,   -0.5,    0.1,    0.1,    0.1,    0.1,  999.0,  999.0,  999.0,   -0.2,  999.0,    0.4,    0.1,  999.0,  999.0,  999.0,  999.0,  999.0,  999.0
